2016 Cux-Wetter.de -Die Nutzung der Wetterdaten nur mit ausdrcklicher Genehmigung
Wetterdaten: Samstag, 15.06.2019
Datum Zeit Temp. A. Feuchte A. Luftdruck Regen Wind Richtung Richtung Sonnenschein Solar Taupunkt Windchill Windben
15.06.2019 00:00 18,0 C 83 % 1012,9 hPa 0,0 l/m 1,6 km/h (1 Bft) N-NO 22 0 min 0 W/m 15,1 C 18,0 C 8,0 km/h (2 Bft)
15.06.2019 00:15 17,9 C 84 % 1012,9 hPa 0,0 l/m 1,6 km/h (1 Bft) N-NO 22 0 min 0 W/m 15,2 C 17,9 C 4,8 km/h (1 Bft)
15.06.2019 00:30 17,9 C 85 % 1012,7 hPa 0,0 l/m 1,6 km/h (1 Bft) N-NO 22 0 min 0 W/m 15,3 C 17,9 C 8,0 km/h (2 Bft)
15.06.2019 00:45 17,9 C 86 % 1012,6 hPa 0,0 l/m 2,2 km/h (1 Bft) NO 45 0 min 0 W/m 15,5 C 17,9 C 9,7 km/h (2 Bft)
15.06.2019 00:48 17,9 C 86 % 1012,6 hPa 0,0 l/m 3,9 km/h (1 Bft) NW 325 0 min 0 W/m 15,5 C 17,9 C 6,4 km/h (2 Bft)
15.06.2019 00:51 17,9 C 86 % 1012,6 hPa 0,0 l/m 1,9 km/h (1 Bft) NW 326 0 min 0 W/m 15,5 C 17,9 C 6,4 km/h (2 Bft)
15.06.2019 00:54 17,9 C 86 % 1012,6 hPa 0,0 l/m 1,7 km/h (1 Bft) NW 326 0 min 0 W/m 15,5 C 17,9 C 4,8 km/h (1 Bft)
15.06.2019 00:57 17,9 C 87 % 1012,5 hPa 0,0 l/m 1,5 km/h (1 Bft) N-NW 346 0 min 0 W/m 15,7 C 17,9 C 6,4 km/h (2 Bft)
15.06.2019 01:00 17,8 C 87 % 1012,5 hPa 0,0 l/m 1,0 km/h (0 Bft) N-NW 346 0 min 0 W/m 15,6 C 17,8 C 3,2 km/h (1 Bft)
15.06.2019 01:03 17,8 C 87 % 1012,5 hPa 0,0 l/m 0,4 km/h (0 Bft) N-NW 346 0 min 0 W/m 15,6 C 17,8 C 1,6 km/h (1 Bft)
15.06.2019 01:06 17,8 C 87 % 1012,4 hPa 0,0 l/m 2,1 km/h (1 Bft) N 355 0 min 0 W/m 15,6 C 17,8 C 6,4 km/h (2 Bft)
15.06.2019 01:09 17,8 C 87 % 1012,5 hPa 0,0 l/m 2,7 km/h (1 Bft) N 351 0 min 0 W/m 15,6 C 17,8 C 6,4 km/h (2 Bft)
15.06.2019 01:12 17,8 C 87 % 1012,4 hPa 0,0 l/m 3,3 km/h (1 Bft) N 351 0 min 0 W/m 15,6 C 17,8 C 6,4 km/h (2 Bft)
15.06.2019 01:15 17,8 C 87 % 1012,4 hPa 0,0 l/m 3,0 km/h (1 Bft) NW 326 0 min 0 W/m 15,6 C 17,8 C 8,0 km/h (2 Bft)
15.06.2019 01:18 17,8 C 87 % 1012,4 hPa 0,0 l/m 3,7 km/h (1 Bft) N-NW 347 0 min 0 W/m 15,6 C 17,8 C 8,0 km/h (2 Bft)
15.06.2019 01:21 17,8 C 87 % 1012,5 hPa 0,0 l/m 3,2 km/h (1 Bft) NW 317 0 min 0 W/m 15,6 C 17,8 C 8,0 km/h (2 Bft)
15.06.2019 01:24 17,8 C 87 % 1012,4 hPa 0,0 l/m 2,4 km/h (1 Bft) NW 319 0 min 0 W/m 15,6 C 17,8 C 4,8 km/h (1 Bft)
15.06.2019 01:27 17,8 C 87 % 1012,5 hPa 0,0 l/m 2,3 km/h (1 Bft) NW 320 0 min 0 W/m 15,6 C 17,8 C 4,8 km/h (1 Bft)
15.06.2019 01:30 17,8 C 87 % 1012,5 hPa 0,0 l/m 2,2 km/h (1 Bft) N-NW 343 0 min 0 W/m 15,6 C 17,8 C 9,7 km/h (2 Bft)
15.06.2019 01:33 17,8 C 87 % 1012,5 hPa 0,0 l/m 2,5 km/h (1 Bft) N-NW 346 0 min 0 W/m 15,6 C 17,8 C 4,8 km/h (1 Bft)
15.06.2019 01:36 17,8 C 88 % 1012,5 hPa 0,0 l/m 2,3 km/h (1 Bft) N-NW 346 0 min 0 W/m 15,8 C 17,8 C 4,8 km/h (1 Bft)
15.06.2019 01:39 17,8 C 88 % 1012,5 hPa 0,0 l/m 2,6 km/h (1 Bft) N 9 0 min 0 W/m 15,8 C 17,8 C 11,3 km/h (2 Bft)
15.06.2019 01:42 17,8 C 88 % 1012,5 hPa 0,0 l/m 2,8 km/h (1 Bft) N 10 0 min 0 W/m 15,8 C 17,8 C 4,8 km/h (1 Bft)
15.06.2019 01:45 17,8 C 88 % 1012,4 hPa 0,0 l/m 2,5 km/h (1 Bft) N 10 0 min 0 W/m 15,8 C 17,8 C 4,8 km/h (1 Bft)
15.06.2019 01:48 17,8 C 88 % 1012,4 hPa 0,0 l/m 1,6 km/h (1 Bft) N 10 0 min 0 W/m 15,8 C 17,8 C 4,8 km/h (1 Bft)
15.06.2019 01:51 17,8 C 88 % 1012,3 hPa 0,0 l/m 2,5 km/h (1 Bft) N 5 0 min 0 W/m 15,8 C 17,8 C 6,4 km/h (2 Bft)
15.06.2019 01:54 17,8 C 88 % 1012,3 hPa 0,0 l/m 2,0 km/h (1 Bft) N 5 0 min 0 W/m 15,8 C 17,8 C 6,4 km/h (2 Bft)
15.06.2019 01:57 17,8 C 88 % 1012,3 hPa 0,0 l/m 2,0 km/h (1 Bft) N 5 0 min 0 W/m 15,8 C 17,8 C 4,8 km/h (1 Bft)
15.06.2019 02:00 17,8 C 88 % 1012,3 hPa 0,0 l/m 1,6 km/h (1 Bft) N 5 0 min 0 W/m 15,8 C 17,8 C 3,2 km/h (1 Bft)
15.06.2019 02:03 17,8 C 88 % 1012,3 hPa 0,0 l/m 1,8 km/h (1 Bft) N 5 0 min 0 W/m 15,8 C 17,8 C 4,8 km/h (1 Bft)
15.06.2019 02:06 17,8 C 88 % 1012,2 hPa 0,0 l/m 1,2 km/h (1 Bft) N 5 0 min 0 W/m 15,8 C 17,8 C 3,2 km/h (1 Bft)
15.06.2019 02:09 17,7 C 88 % 1012,1 hPa 0,0 l/m 1,7 km/h (1 Bft) N 5 0 min 0 W/m 15,7 C 17,7 C 4,8 km/h (1 Bft)
15.06.2019 02:12 17,7 C 88 % 1012,0 hPa 0,0 l/m 0,2 km/h (0 Bft) N 5 0 min 0 W/m 15,7 C 17,7 C 3,2 km/h (1 Bft)
15.06.2019 02:15 17,7 C 88 % 1011,8 hPa 0,0 l/m 0,0 km/h (0 Bft) N 5 0 min 0 W/m 15,7 C 17,7 C 0,0 km/h (0 Bft)
15.06.2019 02:18 17,7 C 88 % 1011,7 hPa 0,0 l/m 1,6 km/h (1 Bft) N 5 0 min 0 W/m 15,7 C 17,7 C 6,4 km/h (2 Bft)
15.06.2019 02:21 17,6 C 88 % 1011,6 hPa 0,0 l/m 1,4 km/h (1 Bft) N 5 0 min 0 W/m 15,6 C 17,6 C 3,2 km/h (1 Bft)
15.06.2019 02:24 17,6 C 88 % 1011,5 hPa 0,0 l/m 1,2 km/h (1 Bft) N 5 0 min 0 W/m 15,6 C 17,6 C 1,6 km/h (1 Bft)
15.06.2019 02:27 17,6 C 88 % 1011,5 hPa 0,0 l/m 1,8 km/h (1 Bft) N 5 0 min 0 W/m 15,6 C 17,6 C 3,2 km/h (1 Bft)
15.06.2019 02:30 17,5 C 88 % 1011,4 hPa 0,0 l/m 1,4 km/h (1 Bft) N 5 0 min 0 W/m 15,5 C 17,5 C 4,8 km/h (1 Bft)
15.06.2019 02:33 17,5 C 88 % 1011,3 hPa 0,0 l/m 1,6 km/h (1 Bft) N 5 0 min 0 W/m 15,5 C 17,5 C 4,8 km/h (1 Bft)
15.06.2019 02:36 17,4 C 88 % 1011,3 hPa 0,0 l/m 1,0 km/h (0 Bft) N 5 0 min 0 W/m 15,4 C 17,4 C 3,2 km/h (1 Bft)
15.06.2019 02:39 17,4 C 88 % 1011,2 hPa 0,0 l/m 2,6 km/h (1 Bft) N 5 0 min 0 W/m 15,4 C 17,4 C 6,4 km/h (2 Bft)
15.06.2019 02:42 17,4 C 89 % 1011,1 hPa 0,0 l/m 2,5 km/h (1 Bft) N-NO 13 0 min 0 W/m 15,6 C 17,4 C 6,4 km/h (2 Bft)
15.06.2019 02:45 17,4 C 89 % 1011,0 hPa 0,0 l/m 2,7 km/h (1 Bft) N-NO 13 0 min 0 W/m 15,6 C 17,4 C 6,4 km/h (2 Bft)
15.06.2019 02:48 17,4 C 89 % 1010,8 hPa 0,0 l/m 4,0 km/h (1 Bft) N-NO 13 0 min 0 W/m 15,6 C 17,4 C 8,0 km/h (2 Bft)
15.06.2019 02:51 17,4 C 89 % 1010,7 hPa 0,0 l/m 2,9 km/h (1 Bft) N-NO 13 0 min 0 W/m 15,6 C 17,4 C 6,4 km/h (2 Bft)
15.06.2019 02:54 17,4 C 89 % 1010,6 hPa 0,0 l/m 3,1 km/h (1 Bft) N-NO 13 0 min 0 W/m 15,6 C 17,4 C 8,0 km/h (2 Bft)
15.06.2019 02:57 17,4 C 90 % 1010,6 hPa 0,0 l/m 3,2 km/h (1 Bft) N 5 0 min 0 W/m 15,7 C 17,4 C 8,0 km/h (2 Bft)
15.06.2019 03:00 17,4 C 90 % 1010,6 hPa 0,0 l/m 2,9 km/h (1 Bft) N 5 0 min 0 W/m 15,7 C 17,4 C 8,0 km/h (2 Bft)
15.06.2019 03:03 17,5 C 90 % 1010,5 hPa 0,0 l/m 2,7 km/h (1 Bft) N-NO 13 0 min 0 W/m 15,8 C 17,5 C 8,0 km/h (2 Bft)
15.06.2019 03:06 17,5 C 90 % 1010,5 hPa 0,0 l/m 2,5 km/h (1 Bft) N-NO 26 0 min 0 W/m 15,8 C 17,5 C 8,0 km/h (2 Bft)
15.06.2019 03:09 17,5 C 90 % 1010,5 hPa 0,0 l/m 2,7 km/h (1 Bft) N-NO 25 0 min 0 W/m 15,8 C 17,5 C 6,4 km/h (2 Bft)
15.06.2019 03:12 17,6 C 90 % 1010,5 hPa 0,0 l/m 1,5 km/h (1 Bft) N-NO 25 0 min 0 W/m 15,9 C 17,6 C 6,4 km/h (2 Bft)
15.06.2019 03:15 17,6 C 90 % 1010,4 hPa 0,0 l/m 3,0 km/h (1 Bft) N-NO 24 0 min 0 W/m 15,9 C 17,6 C 8,0 km/h (2 Bft)
15.06.2019 03:18 17,6 C 90 % 1010,5 hPa 0,0 l/m 2,3 km/h (1 Bft) N-NW 327 0 min 0 W/m 15,9 C 17,6 C 8,0 km/h (2 Bft)
15.06.2019 03:21 17,6 C 90 % 1010,6 hPa 0,0 l/m 3,2 km/h (1 Bft) NW 325 0 min 0 W/m 15,9 C 17,6 C 8,0 km/h (2 Bft)
15.06.2019 03:24 17,6 C 90 % 1010,5 hPa 0,0 l/m 2,3 km/h (1 Bft) NW 325 0 min 0 W/m 15,9 C 17,6 C 4,8 km/h (1 Bft)
15.06.2019 03:27 17,6 C 90 % 1010,4 hPa 0,0 l/m 1,5 km/h (1 Bft) NW 325 0 min 0 W/m 15,9 C 17,6 C 4,8 km/h (1 Bft)
15.06.2019 03:30 17,6 C 90 % 1010,3 hPa 0,0 l/m 1,9 km/h (1 Bft) NW 325 0 min 0 W/m 15,9 C 17,6 C 6,4 km/h (2 Bft)
15.06.2019 03:33 17,6 C 90 % 1010,4 hPa 0,0 l/m 0,5 km/h (0 Bft) NW 325 0 min 0 W/m 15,9 C 17,6 C 3,2 km/h (1 Bft)
15.06.2019 03:36 17,6 C 90 % 1010,3 hPa 0,0 l/m 1,4 km/h (1 Bft) NW 323 0 min 0 W/m 15,9 C 17,6 C 6,4 km/h (2 Bft)
15.06.2019 03:39 17,6 C 90 % 1010,5 hPa 0,0 l/m 1,1 km/h (1 Bft) O-NO 62 0 min 0 W/m 15,9 C 17,6 C 6,4 km/h (2 Bft)
15.06.2019 03:42 17,5 C 90 % 1010,4 hPa 0,0 l/m 0,6 km/h (0 Bft) O-NO 62 0 min 0 W/m 15,8 C 17,5 C 3,2 km/h (1 Bft)
15.06.2019 03:45 17,6 C 90 % 1010,3 hPa 0,0 l/m 1,0 km/h (0 Bft) O-NO 63 0 min 0 W/m 15,9 C 17,6 C 3,2 km/h (1 Bft)
15.06.2019 03:48 17,5 C 90 % 1010,1 hPa 0,0 l/m 2,6 km/h (1 Bft) N-NW 347 0 min 0 W/m 15,8 C 17,5 C 6,4 km/h (2 Bft)
15.06.2019 03:51 17,5 C 90 % 1010,1 hPa 0,0 l/m 2,6 km/h (1 Bft) N-NW 347 0 min 0 W/m 15,8 C 17,5 C 6,4 km/h (2 Bft)
15.06.2019 03:54 17,5 C 90 % 1010,1 hPa 0,0 l/m 2,9 km/h (1 Bft) N 355 0 min 0 W/m 15,8 C 17,5 C 8,0 km/h (2 Bft)
15.06.2019 03:57 17,5 C 90 % 1010,0 hPa 0,0 l/m 3,0 km/h (1 Bft) N 355 0 min 0 W/m 15,8 C 17,5 C 8,0 km/h (2 Bft)
15.06.2019 04:00 17,5 C 90 % 1010,0 hPa 0,0 l/m 3,1 km/h (1 Bft) NW 325 0 min 0 W/m 15,8 C 17,5 C 9,7 km/h (2 Bft)
15.06.2019 04:03 17,5 C 90 % 1010,2 hPa 0,0 l/m 2,5 km/h (1 Bft) NW 325 0 min 0 W/m 15,8 C 17,5 C 6,4 km/h (2 Bft)
15.06.2019 04:06 17,5 C 90 % 1010,3 hPa 0,0 l/m 2,0 km/h (1 Bft) NW 325 0 min 0 W/m 15,8 C 17,5 C 4,8 km/h (1 Bft)
15.06.2019 04:09 17,4 C 90 % 1010,4 hPa 0,0 l/m 1,4 km/h (1 Bft) NW 325 0 min 0 W/m 15,7 C 17,4 C 4,8 km/h (1 Bft)
15.06.2019 04:12 17,4 C 90 % 1010,4 hPa 0,0 l/m 2,4 km/h (1 Bft) NW 325 0 min 0 W/m 15,7 C 17,4 C 6,4 km/h (2 Bft)
15.06.2019 04:15 17,4 C 90 % 1010,3 hPa 0,0 l/m 0,3 km/h (0 Bft) NW 325 0 min 0 W/m 15,7 C 17,4 C 3,2 km/h (1 Bft)
15.06.2019 04:18 17,4 C 90 % 1010,4 hPa 0,0 l/m 2,4 km/h (1 Bft) NW 325 0 min 0 W/m 15,7 C 17,4 C 4,8 km/h (1 Bft)
15.06.2019 04:21 17,4 C 90 % 1010,4 hPa 0,0 l/m 2,2 km/h (1 Bft) NW 325 0 min 0 W/m 15,7 C 17,4 C 4,8 km/h (1 Bft)
15.06.2019 04:24 17,4 C 90 % 1010,4 hPa 0,0 l/m 2,0 km/h (1 Bft) NW 325 0 min 0 W/m 15,7 C 17,4 C 4,8 km/h (1 Bft)
15.06.2019 04:27 17,3 C 90 % 1010,5 hPa 0,0 l/m 1,7 km/h (1 Bft) NW 325 0 min 0 W/m 15,6 C 17,3 C 4,8 km/h (1 Bft)
15.06.2019 04:30 17,3 C 90 % 1010,5 hPa 0,0 l/m 0,0 km/h (0 Bft) NW 325 0 min 0 W/m 15,6 C 17,3 C 0,0 km/h (0 Bft)
15.06.2019 04:33 17,3 C 90 % 1010,4 hPa 0,0 l/m 0,5 km/h (0 Bft) NW 325 0 min 0 W/m 15,6 C 17,3 C 3,2 km/h (1 Bft)
15.06.2019 04:36 17,3 C 90 % 1010,3 hPa 0,0 l/m 0,0 km/h (0 Bft) NW 325 0 min 0 W/m 15,6 C 17,3 C 1,6 km/h (1 Bft)
15.06.2019 04:39 17,3 C 90 % 1010,4 hPa 0,0 l/m 0,2 km/h (0 Bft) NW 325 0 min 0 W/m 15,6 C 17,3 C 1,6 km/h (1 Bft)
15.06.2019 04:42 17,3 C 90 % 1010,2 hPa 0,0 l/m 0,1 km/h (0 Bft) NW 325 0 min 0 W/m 15,6 C 17,3 C 1,6 km/h (1 Bft)
15.06.2019 04:45 17,3 C 90 % 1010,1 hPa 0,0 l/m 1,2 km/h (1 Bft) NW 325 0 min 0 W/m 15,6 C 17,3 C 4,8 km/h (1 Bft)
15.06.2019 04:48 17,3 C 90 % 1010,1 hPa 0,0 l/m 1,3 km/h (1 Bft) NW 325 0 min 0 W/m 15,6 C 17,3 C 4,8 km/h (1 Bft)
15.06.2019 04:51 17,3 C 90 % 1009,9 hPa 0,0 l/m 0,5 km/h (0 Bft) NW 325 0 min 0 W/m 15,6 C 17,3 C 3,2 km/h (1 Bft)
15.06.2019 04:54 17,3 C 90 % 1009,9 hPa 0,0 l/m 0,0 km/h (0 Bft) NW 325 0 min 0 W/m 15,6 C 17,3 C 0,0 km/h (0 Bft)
15.06.2019 04:57 17,2 C 90 % 1009,8 hPa 0,0 l/m 1,1 km/h (1 Bft) NW 325 0 min 0 W/m 15,5 C 17,2 C 4,8 km/h (1 Bft)
15.06.2019 05:00 17,2 C 90 % 1009,8 hPa 0,0 l/m 1,6 km/h (1 Bft) NW 325 0 min 0 W/m 15,5 C 17,2 C 3,2 km/h (1 Bft)
15.06.2019 05:03 17,2 C 90 % 1009,7 hPa 0,0 l/m 1,8 km/h (1 Bft) NW 325 0 min 0 W/m 15,5 C 17,2 C 4,8 km/h (1 Bft)
15.06.2019 05:06 17,2 C 90 % 1009,8 hPa 0,0 l/m 0,6 km/h (0 Bft) NW 325 0 min 0 W/m 15,5 C 17,2 C 3,2 km/h (1 Bft)
15.06.2019 05:09 17,2 C 90 % 1009,9 hPa 0,0 l/m 0,6 km/h (0 Bft) NW 325 0 min 0 W/m 15,5 C 17,2 C 3,2 km/h (1 Bft)
15.06.2019 05:12 17,2 C 90 % 1010,0 hPa 0,0 l/m 0,9 km/h (0 Bft) NW 325 0 min 0 W/m 15,5 C 17,2 C 3,2 km/h (1 Bft)
15.06.2019 05:15 17,1 C 90 % 1010,1 hPa 0,0 l/m 0,5 km/h (0 Bft) NW 325 0 min 0 W/m 15,4 C 17,1 C 3,2 km/h (1 Bft)
15.06.2019 05:18 17,1 C 90 % 1010,2 hPa 0,0 l/m 1,7 km/h (1 Bft) NW 325 0 min 0 W/m 15,4 C 17,1 C 4,8 km/h (1 Bft)
15.06.2019 05:21 17,1 C 90 % 1010,2 hPa 0,0 l/m 0,9 km/h (0 Bft) NW 325 0 min 0 W/m 15,4 C 17,1 C 3,2 km/h (1 Bft)
15.06.2019 05:24 17,1 C 90 % 1010,2 hPa 0,0 l/m 0,3 km/h (0 Bft) NW 325 0 min 0 W/m 15,4 C 17,1 C 1,6 km/h (1 Bft)
15.06.2019 05:27 17,1 C 90 % 1010,2 hPa 0,0 l/m 0,0 km/h (0 Bft) NW 325 0 min 0 W/m 15,4 C 17,1 C 0,0 km/h (0 Bft)
15.06.2019 05:30 17,1 C 90 % 1010,1 hPa 0,0 l/m 0,0 km/h (0 Bft) NW 325 0 min 0 W/m 15,4 C 17,1 C 0,0 km/h (0 Bft)
15.06.2019 05:33 17,1 C 91 % 1010,2 hPa 0,0 l/m 1,0 km/h (0 Bft) NW 325 0 min 0 W/m 15,6 C 17,1 C 3,2 km/h (1 Bft)
15.06.2019 05:36 17,1 C 91 % 1010,1 hPa 0,0 l/m 0,6 km/h (0 Bft) NW 325 0 min 0 W/m 15,6 C 17,1 C 1,6 km/h (1 Bft)
15.06.2019 05:39 17,1 C 91 % 1010,2 hPa 0,0 l/m 0,2 km/h (0 Bft) NW 325 0 min 0 W/m 15,6 C 17,1 C 1,6 km/h (1 Bft)
15.06.2019 05:42 17,1 C 91 % 1010,1 hPa 0,0 l/m 0,5 km/h (0 Bft) NW 325 0 min 0 W/m 15,6 C 17,1 C 1,6 km/h (1 Bft)
15.06.2019 05:45 17,1 C 91 % 1010,1 hPa 0,0 l/m 0,5 km/h (0 Bft) NW 325 0 min 0 W/m 15,6 C 17,1 C 3,2 km/h (1 Bft)
15.06.2019 05:48 17,1 C 91 % 1010,1 hPa 0,0 l/m 0,6 km/h (0 Bft) NW 325 0 min 0 W/m 15,6 C 17,1 C 3,2 km/h (1 Bft)
15.06.2019 05:51 17,1 C 91 % 1009,9 hPa 0,0 l/m 1,6 km/h (1 Bft) NW 325 0 min 0 W/m 15,6 C 17,1 C 3,2 km/h (1 Bft)
15.06.2019 05:54 17,1 C 91 % 1009,9 hPa 0,0 l/m 1,2 km/h (1 Bft) NW 325 0 min 0 W/m 15,6 C 17,1 C 4,8 km/h (1 Bft)
15.06.2019 05:57 17,1 C 91 % 1009,8 hPa 0,0 l/m 2,7 km/h (1 Bft) N-NW 327 0 min 0 W/m 15,6 C 17,1 C 4,8 km/h (1 Bft)
15.06.2019 06:00 17,0 C 91 % 1009,6 hPa 0,0 l/m 1,8 km/h (1 Bft) N-NW 327 0 min 5 W/m 15,5 C 17,0 C 4,8 km/h (1 Bft)
15.06.2019 06:03 17,0 C 91 % 1009,6 hPa 0,0 l/m 1,3 km/h (1 Bft) N-NW 327 0 min 7 W/m 15,5 C 17,0 C 4,8 km/h (1 Bft)
15.06.2019 06:06 17,0 C 91 % 1009,5 hPa 0,0 l/m 1,0 km/h (0 Bft) N-NW 327 0 min 9 W/m 15,5 C 17,0 C 3,2 km/h (1 Bft)
15.06.2019 06:09 17,0 C 91 % 1009,4 hPa 0,0 l/m 1,6 km/h (1 Bft) N-NW 327 0 min 14 W/m 15,5 C 17,0 C 4,8 km/h (1 Bft)
15.06.2019 06:12 17,0 C 91 % 1009,4 hPa 0,0 l/m 1,0 km/h (0 Bft) N-NW 327 0 min 23 W/m 15,5 C 17,0 C 3,2 km/h (1 Bft)
15.06.2019 06:15 17,0 C 91 % 1009,3 hPa 0,0 l/m 2,3 km/h (1 Bft) N-NW 327 0 min 35 W/m 15,5 C 17,0 C 4,8 km/h (1 Bft)
15.06.2019 06:18 17,0 C 91 % 1009,1 hPa 0,0 l/m 1,0 km/h (0 Bft) N-NW 327 0 min 46 W/m 15,5 C 17,0 C 3,2 km/h (1 Bft)
15.06.2019 06:21 17,0 C 91 % 1009,0 hPa 0,0 l/m 1,2 km/h (1 Bft) N-NW 327 0 min 51 W/m 15,5 C 17,0 C 6,4 km/h (2 Bft)
15.06.2019 06:24 17,0 C 92 % 1009,0 hPa 0,0 l/m 1,6 km/h (1 Bft) N-NW 327 0 min 47 W/m 15,7 C 17,0 C 4,8 km/h (1 Bft)
15.06.2019 06:27 17,0 C 92 % 1009,0 hPa 0,0 l/m 0,8 km/h (0 Bft) N-NW 327 0 min 51 W/m 15,7 C 17,0 C 3,2 km/h (1 Bft)
15.06.2019 06:30 17,0 C 92 % 1009,1 hPa 0,0 l/m 0,1 km/h (0 Bft) N-NW 327 0 min 60 W/m 15,7 C 17,0 C 1,6 km/h (1 Bft)
15.06.2019 06:33 17,0 C 92 % 1009,0 hPa 0,0 l/m 0,7 km/h (0 Bft) N-NW 327 0 min 60 W/m 15,7 C 17,0 C 3,2 km/h (1 Bft)
15.06.2019 06:36 17,0 C 92 % 1009,0 hPa 0,0 l/m 0,8 km/h (0 Bft) N-NW 327 0 min 51 W/m 15,7 C 17,0 C 4,8 km/h (1 Bft)
15.06.2019 06:39 17,1 C 92 % 1008,9 hPa 0,0 l/m 0,3 km/h (0 Bft) N-NW 327 0 min 47 W/m 15,8 C 17,1 C 1,6 km/h (1 Bft)
15.06.2019 06:42 17,1 C 92 % 1008,8 hPa 0,0 l/m 0,2 km/h (0 Bft) N-NW 327 0 min 54 W/m 15,8 C 17,1 C 1,6 km/h (1 Bft)
15.06.2019 06:45 17,1 C 92 % 1008,8 hPa 0,0 l/m 1,4 km/h (1 Bft) N-NW 327 0 min 56 W/m 15,8 C 17,1 C 3,2 km/h (1 Bft)
15.06.2019 06:48 17,1 C 92 % 1008,7 hPa 0,0 l/m 0,7 km/h (0 Bft) N-NW 327 0 min 49 W/m 15,8 C 17,1 C 4,8 km/h (1 Bft)
15.06.2019 06:51 17,1 C 92 % 1008,8 hPa 0,0 l/m 0,4 km/h (0 Bft) N-NW 327 0 min 35 W/m 15,8 C 17,1 C 1,6 km/h (1 Bft)
15.06.2019 06:54 17,2 C 92 % 1008,6 hPa 0,0 l/m 1,5 km/h (1 Bft) N-NW 327 0 min 28 W/m 15,9 C 17,2 C 4,8 km/h (1 Bft)
15.06.2019 06:57 17,2 C 92 % 1008,5 hPa 0,0 l/m 1,3 km/h (1 Bft) N-NW 327 0 min 28 W/m 15,9 C 17,2 C 4,8 km/h (1 Bft)
15.06.2019 07:00 17,2 C 92 % 1008,5 hPa 0,0 l/m 0,5 km/h (0 Bft) N-NW 327 0 min 32 W/m 15,9 C 17,2 C 3,2 km/h (1 Bft)
15.06.2019 07:03 17,2 C 92 % 1008,5 hPa 0,0 l/m 0,9 km/h (0 Bft) N-NW 327 0 min 37 W/m 15,9 C 17,2 C 3,2 km/h (1 Bft)
15.06.2019 07:06 17,2 C 93 % 1008,5 hPa 0,0 l/m 0,6 km/h (0 Bft) N-NW 327 0 min 39 W/m 16,1 C 17,2 C 3,2 km/h (1 Bft)
15.06.2019 07:09 17,3 C 93 % 1008,6 hPa 0,0 l/m 0,7 km/h (0 Bft) N-NW 327 0 min 39 W/m 16,2 C 17,3 C 4,8 km/h (1 Bft)
15.06.2019 07:12 17,3 C 93 % 1008,5 hPa 0,0 l/m 2,0 km/h (1 Bft) N-NW 327 0 min 35 W/m 16,2 C 17,3 C 6,4 km/h (2 Bft)
15.06.2019 07:15 17,3 C 93 % 1008,4 hPa 0,0 l/m 2,2 km/h (1 Bft) N-NW 328 0 min 25 W/m 16,2 C 17,3 C 8,0 km/h (2 Bft)
15.06.2019 07:18 17,3 C 93 % 1008,4 hPa 0,0 l/m 2,2 km/h (1 Bft) N-NW 329 0 min 14 W/m 16,2 C 17,3 C 6,4 km/h (2 Bft)
15.06.2019 07:21 17,3 C 93 % 1008,4 hPa 0,0 l/m 2,6 km/h (1 Bft) N-NW 342 0 min 12 W/m 16,2 C 17,3 C 9,7 km/h (2 Bft)
15.06.2019 07:24 17,3 C 93 % 1008,4 hPa 0,0 l/m 3,2 km/h (1 Bft) N-NO 24 0 min 11 W/m 16,2 C 17,3 C 12,9 km/h (3 Bft)
15.06.2019 07:27 17,3 C 93 % 1008,3 hPa 0,0 l/m 2,2 km/h (1 Bft) NO 54 0 min 11 W/m 16,2 C 17,3 C 8,0 km/h (2 Bft)
15.06.2019 07:30 17,3 C 93 % 1008,3 hPa 0,0 l/m 2,8 km/h (1 Bft) NO 55 0 min 12 W/m 16,2 C 17,3 C 6,4 km/h (2 Bft)
15.06.2019 07:33 17,3 C 93 % 1008,0 hPa 0,0 l/m 1,0 km/h (0 Bft) NO 55 0 min 16 W/m 16,2 C 17,3 C 3,2 km/h (1 Bft)
15.06.2019 07:36 17,3 C 93 % 1008,1 hPa 0,0 l/m 0,1 km/h (0 Bft) NO 55 0 min 12 W/m 16,2 C 17,3 C 1,6 km/h (1 Bft)
15.06.2019 07:39 17,3 C 93 % 1008,0 hPa 0,0 l/m 0,3 km/h (0 Bft) NO 55 0 min 11 W/m 16,2 C 17,3 C 3,2 km/h (1 Bft)
15.06.2019 07:42 17,3 C 93 % 1008,1 hPa 0,0 l/m 0,8 km/h (0 Bft) NO 55 0 min 7 W/m 16,2 C 17,3 C 3,2 km/h (1 Bft)
15.06.2019 07:45 17,3 C 93 % 1007,9 hPa 0,0 l/m 1,7 km/h (1 Bft) NO 42 0 min 5 W/m 16,2 C 17,3 C 4,8 km/h (1 Bft)
15.06.2019 07:48 17,3 C 93 % 1007,9 hPa 0,0 l/m 3,4 km/h (1 Bft) N-NW 347 0 min 5 W/m 16,2 C 17,3 C 6,4 km/h (2 Bft)
15.06.2019 07:51 17,3 C 93 % 1007,9 hPa 0,0 l/m 1,6 km/h (1 Bft) N-NW 347 0 min 9 W/m 16,2 C 17,3 C 3,2 km/h (1 Bft)
15.06.2019 07:54 17,3 C 93 % 1007,8 hPa 0,0 l/m 1,2 km/h (1 Bft) N-NW 347 0 min 11 W/m 16,2 C 17,3 C 3,2 km/h (1 Bft)
15.06.2019 07:57 17,3 C 93 % 1007,7 hPa 0,0 l/m 0,8 km/h (0 Bft) N-NW 347 0 min 12 W/m 16,2 C 17,3 C 3,2 km/h (1 Bft)
15.06.2019 08:00 17,3 C 93 % 1007,6 hPa 0,0 l/m 1,4 km/h (1 Bft) N-NW 347 0 min 21 W/m 16,2 C 17,3 C 4,8 km/h (1 Bft)
15.06.2019 08:03 17,3 C 93 % 1007,6 hPa 0,0 l/m 1,0 km/h (0 Bft) N-NW 347 0 min 21 W/m 16,2 C 17,3 C 3,2 km/h (1 Bft)
15.06.2019 08:06 17,3 C 93 % 1007,7 hPa 0,0 l/m 1,3 km/h (1 Bft) N-NW 348 0 min 19 W/m 16,2 C 17,3 C 8,0 km/h (2 Bft)
15.06.2019 08:09 17,3 C 93 % 1007,6 hPa 0,0 l/m 3,3 km/h (1 Bft) N 349 0 min 21 W/m 16,2 C 17,3 C 8,0 km/h (2 Bft)
15.06.2019 08:12 17,4 C 93 % 1007,5 hPa 0,0 l/m 1,9 km/h (1 Bft) N 349 0 min 33 W/m 16,3 C 17,4 C 6,4 km/h (2 Bft)
15.06.2019 08:15 17,4 C 93 % 1007,5 hPa 0,0 l/m 2,3 km/h (1 Bft) O 80 0 min 44 W/m 16,3 C 17,4 C 8,0 km/h (2 Bft)
15.06.2019 08:18 17,4 C 93 % 1007,5 hPa 0,0 l/m 2,4 km/h (1 Bft) N-NO 28 0 min 58 W/m 16,3 C 17,4 C 6,4 km/h (2 Bft)
15.06.2019 08:21 17,4 C 93 % 1007,5 hPa 0,0 l/m 2,9 km/h (1 Bft) N-NW 336 0 min 72 W/m 16,3 C 17,4 C 8,0 km/h (2 Bft)
15.06.2019 08:24 17,4 C 93 % 1007,5 hPa 0,0 l/m 3,1 km/h (1 Bft) N-NO 26 0 min 88 W/m 16,3 C 17,4 C 9,7 km/h (2 Bft)
15.06.2019 08:27 17,5 C 93 % 1007,3 hPa 0,0 l/m 4,4 km/h (1 Bft) N-NW 342 0 min 100 W/m 16,4 C 17,5 C 9,7 km/h (2 Bft)
15.06.2019 08:30 17,6 C 93 % 1007,3 hPa 0,0 l/m 2,2 km/h (1 Bft) N-NW 343 0 min 111 W/m 16,5 C 17,6 C 8,0 km/h (2 Bft)
15.06.2019 08:33 17,6 C 93 % 1007,3 hPa 0,0 l/m 2,6 km/h (1 Bft) N-NW 345 0 min 113 W/m 16,5 C 17,6 C 6,4 km/h (2 Bft)
15.06.2019 08:36 17,6 C 93 % 1007,3 hPa 0,0 l/m 4,5 km/h (1 Bft) N-NW 344 0 min 118 W/m 16,5 C 17,6 C 12,9 km/h (3 Bft)
15.06.2019 08:39 17,7 C 93 % 1007,2 hPa 0,0 l/m 2,5 km/h (1 Bft) N 351 0 min 118 W/m 16,6 C 17,7 C 9,7 km/h (2 Bft)
15.06.2019 08:42 17,7 C 94 % 1007,2 hPa 0,0 l/m 3,9 km/h (1 Bft) NO 35 0 min 120 W/m 16,7 C 17,7 C 8,0 km/h (2 Bft)
15.06.2019 08:45 17,8 C 94 % 1007,2 hPa 0,0 l/m 2,0 km/h (1 Bft) N-NW 348 0 min 123 W/m 16,8 C 17,8 C 6,4 km/h (2 Bft)
15.06.2019 08:48 17,8 C 94 % 1007,3 hPa 0,0 l/m 4,8 km/h (1 Bft) NO 42 0 min 132 W/m 16,8 C 17,8 C 8,0 km/h (2 Bft)
15.06.2019 08:51 17,8 C 94 % 1007,4 hPa 0,0 l/m 3,4 km/h (1 Bft) O-NO 77 0 min 139 W/m 16,8 C 17,8 C 11,3 km/h (2 Bft)
15.06.2019 08:54 17,9 C 94 % 1007,4 hPa 0,0 l/m 2,4 km/h (1 Bft) NW 315 0 min 149 W/m 16,9 C 17,9 C 6,4 km/h (2 Bft)
15.06.2019 08:57 17,9 C 94 % 1007,5 hPa 0,0 l/m 3,1 km/h (1 Bft) N-NW 328 0 min 158 W/m 16,9 C 17,9 C 8,0 km/h (2 Bft)
15.06.2019 09:00 18,0 C 94 % 1007,5 hPa 0,0 l/m 2,2 km/h (1 Bft) O-SO 107 0 min 156 W/m 17,0 C 18,0 C 6,4 km/h (2 Bft)
15.06.2019 09:03 18,1 C 94 % 1007,5 hPa 0,0 l/m 2,8 km/h (1 Bft) NW 315 0 min 146 W/m 17,1 C 18,1 C 11,3 km/h (2 Bft)
15.06.2019 09:06 18,1 C 94 % 1007,6 hPa 0,0 l/m 2,8 km/h (1 Bft) O-SO 121 0 min 127 W/m 17,1 C 18,1 C 4,8 km/h (1 Bft)
15.06.2019 09:09 18,1 C 94 % 1007,7 hPa 0,0 l/m 1,5 km/h (1 Bft) O-SO 121 0 min 158 W/m 17,1 C 18,1 C 4,8 km/h (1 Bft)
15.06.2019 09:12 18,2 C 94 % 1007,7 hPa 0,0 l/m 5,1 km/h (1 Bft) NO 48 0 min 162 W/m 17,2 C 18,2 C 16,1 km/h (3 Bft)
15.06.2019 09:15 18,2 C 94 % 1007,7 hPa 0,0 l/m 1,0 km/h (0 Bft) NO 48 0 min 200 W/m 17,2 C 18,2 C 3,2 km/h (1 Bft)
15.06.2019 09:18 18,3 C 94 % 1007,7 hPa 0,0 l/m 2,8 km/h (1 Bft) N-NO 31 0 min 237 W/m 17,3 C 18,3 C 8,0 km/h (2 Bft)
15.06.2019 09:21 18,4 C 94 % 1007,7 hPa 0,0 l/m 2,7 km/h (1 Bft) N-NO 26 0 min 179 W/m 17,4 C 18,4 C 9,7 km/h (2 Bft)
15.06.2019 09:24 18,4 C 94 % 1007,6 hPa 0,0 l/m 3,5 km/h (1 Bft) N 360 0 min 216 W/m 17,4 C 18,4 C 8,0 km/h (2 Bft)
15.06.2019 09:27 18,6 C 94 % 1007,5 hPa 0,0 l/m 2,8 km/h (1 Bft) NO 51 3 min 399 W/m 17,6 C 18,6 C 9,7 km/h (2 Bft)
15.06.2019 09:30 18,7 C 94 % 1007,4 hPa 0,0 l/m 3,3 km/h (1 Bft) N-NO 19 3 min 380 W/m 17,7 C 18,7 C 8,0 km/h (2 Bft)
15.06.2019 09:33 18,8 C 94 % 1007,4 hPa 0,0 l/m 3,6 km/h (1 Bft) N-NO 19 3 min 394 W/m 17,8 C 18,8 C 6,4 km/h (2 Bft)
15.06.2019 09:36 18,9 C 94 % 1007,3 hPa 0,0 l/m 5,2 km/h (1 Bft) NO 43 3 min 422 W/m 17,9 C 18,9 C 16,1 km/h (3 Bft)
15.06.2019 09:39 18,9 C 93 % 1007,3 hPa 0,0 l/m 3,8 km/h (1 Bft) W-SW 249 0 min 290 W/m 17,7 C 18,9 C 6,4 km/h (2 Bft)
15.06.2019 09:42 19,0 C 93 % 1007,2 hPa 0,0 l/m 4,0 km/h (1 Bft) N-NW 330 3 min 450 W/m 17,8 C 19,0 C 8,0 km/h (2 Bft)
15.06.2019 09:45 19,1 C 93 % 1007,2 hPa 0,0 l/m 2,9 km/h (1 Bft) NO 40 0 min 315 W/m 17,9 C 19,1 C 9,7 km/h (2 Bft)
15.06.2019 09:48 19,2 C 93 % 1007,2 hPa 0,0 l/m 4,1 km/h (1 Bft) N 355 0 min 134 W/m 18,0 C 19,2 C 14,5 km/h (3 Bft)
15.06.2019 09:51 19,3 C 92 % 1007,1 hPa 0,0 l/m 2,6 km/h (1 Bft) N 5 0 min 160 W/m 18,0 C 19,3 C 6,4 km/h (2 Bft)
15.06.2019 09:54 19,2 C 92 % 1007,1 hPa 0,0 l/m 4,0 km/h (1 Bft) N 350 0 min 204 W/m 17,9 C 19,2 C 12,9 km/h (3 Bft)
15.06.2019 09:57 19,2 C 92 % 1007,1 hPa 0,0 l/m 3,6 km/h (1 Bft) N 360 0 min 181 W/m 17,9 C 19,2 C 6,4 km/h (2 Bft)
15.06.2019 10:00 19,2 C 91 % 1007,1 hPa 0,0 l/m 3,4 km/h (1 Bft) N 5 0 min 162 W/m 17,7 C 19,2 C 6,4 km/h (2 Bft)
15.06.2019 10:03 19,2 C 91 % 1007,2 hPa 0,0 l/m 1,8 km/h (1 Bft) N 5 0 min 207 W/m 17,7 C 19,2 C 8,0 km/h (2 Bft)
15.06.2019 10:06 19,3 C 91 % 1007,0 hPa 0,0 l/m 1,7 km/h (1 Bft) N 5 0 min 272 W/m 17,8 C 19,3 C 6,4 km/h (2 Bft)
15.06.2019 10:09 19,3 C 91 % 1007,1 hPa 0,0 l/m 1,4 km/h (1 Bft) N 5 0 min 269 W/m 17,8 C 19,3 C 4,8 km/h (1 Bft)
15.06.2019 10:12 19,5 C 91 % 1007,1 hPa 0,0 l/m 0,5 km/h (0 Bft) N 5 3 min 427 W/m 18,0 C 19,5 C 1,6 km/h (1 Bft)
15.06.2019 10:15 19,7 C 91 % 1007,2 hPa 0,0 l/m 1,4 km/h (1 Bft) N 5 3 min 385 W/m 18,2 C 19,7 C 3,2 km/h (1 Bft)
15.06.2019 10:18 19,8 C 91 % 1007,2 hPa 0,0 l/m 1,9 km/h (1 Bft) NO 42 0 min 285 W/m 18,3 C 19,8 C 8,0 km/h (2 Bft)
15.06.2019 10:21 19,8 C 90 % 1007,2 hPa 0,0 l/m 2,2 km/h (1 Bft) NO 42 0 min 283 W/m 18,1 C 19,8 C 4,8 km/h (1 Bft)
15.06.2019 10:24 19,8 C 89 % 1007,1 hPa 0,0 l/m 3,2 km/h (1 Bft) N-NW 342 0 min 332 W/m 17,9 C 19,8 C 8,0 km/h (2 Bft)
15.06.2019 10:27 19,9 C 89 % 1007,1 hPa 0,0 l/m 2,4 km/h (1 Bft) N-NW 343 0 min 278 W/m 18,0 C 19,9 C 6,4 km/h (2 Bft)
15.06.2019 10:30 20,0 C 89 % 1007,0 hPa 0,0 l/m 3,6 km/h (1 Bft) N-NW 346 0 min 244 W/m 18,1 C 20,0 C 6,4 km/h (2 Bft)
15.06.2019 10:33 20,1 C 89 % 1007,0 hPa 0,0 l/m 2,4 km/h (1 Bft) N-NW 346 0 min 229 W/m 18,2 C 20,1 C 6,4 km/h (2 Bft)
15.06.2019 10:36 20,1 C 89 % 1006,9 hPa 0,0 l/m 3,2 km/h (1 Bft) N-NO 33 0 min 232 W/m 18,2 C 20,1 C 8,0 km/h (2 Bft)
15.06.2019 10:39 20,2 C 88 % 1006,9 hPa 0,0 l/m 0,8 km/h (0 Bft) N-NO 33 0 min 142 W/m 18,1 C 20,2 C 3,2 km/h (1 Bft)
15.06.2019 10:42 20,2 C 88 % 1006,9 hPa 0,0 l/m 2,5 km/h (1 Bft) N-NO 32 0 min 120 W/m 18,1 C 20,2 C 4,8 km/h (1 Bft)
15.06.2019 10:45 20,2 C 88 % 1006,8 hPa 0,0 l/m 1,4 km/h (1 Bft) N-NO 32 0 min 86 W/m 18,1 C 20,2 C 3,2 km/h (1 Bft)
15.06.2019 10:48 20,2 C 87 % 1006,9 hPa 0,0 l/m 3,0 km/h (1 Bft) N-NO 30 0 min 63 W/m 18,0 C 20,2 C 6,4 km/h (2 Bft)
15.06.2019 10:51 20,2 C 87 % 1007,1 hPa 0,0 l/m 2,0 km/h (1 Bft) N-NO 30 0 min 65 W/m 18,0 C 20,2 C 6,4 km/h (2 Bft)
15.06.2019 10:54 20,2 C 87 % 1007,1 hPa 0,0 l/m 2,1 km/h (1 Bft) N-NO 31 0 min 69 W/m 18,0 C 20,2 C 8,0 km/h (2 Bft)
15.06.2019 10:57 20,2 C 87 % 1007,1 hPa 0,0 l/m 1,9 km/h (1 Bft) N-NO 31 0 min 118 W/m 18,0 C 20,2 C 4,8 km/h (1 Bft)
15.06.2019 11:00 20,2 C 87 % 1007,2 hPa 0,0 l/m 1,7 km/h (1 Bft) N-NO 31 0 min 74 W/m 18,0 C 20,2 C 6,4 km/h (2 Bft)
15.06.2019 11:03 20,2 C 86 % 1007,1 hPa 0,0 l/m 2,8 km/h (1 Bft) N-NO 31 0 min 81 W/m 17,8 C 20,2 C 8,0 km/h (2 Bft)
15.06.2019 11:06 20,2 C 86 % 1007,0 hPa 0,0 l/m 2,5 km/h (1 Bft) N-NO 32 0 min 98 W/m 17,8 C 20,2 C 8,0 km/h (2 Bft)
15.06.2019 11:09 20,2 C 86 % 1006,9 hPa 0,0 l/m 3,7 km/h (1 Bft) N-NO 31 0 min 149 W/m 17,8 C 20,2 C 8,0 km/h (2 Bft)
15.06.2019 11:12 20,2 C 87 % 1006,9 hPa 0,0 l/m 3,3 km/h (1 Bft) N-NO 24 0 min 160 W/m 18,0 C 20,2 C 6,4 km/h (2 Bft)
15.06.2019 11:15 20,2 C 87 % 1006,9 hPa 0,0 l/m 0,5 km/h (0 Bft) N-NO 25 0 min 104 W/m 18,0 C 20,2 C 3,2 km/h (1 Bft)
15.06.2019 11:18 20,2 C 87 % 1006,9 hPa 0,0 l/m 2,0 km/h (1 Bft) N-NO 25 0 min 125 W/m 18,0 C 20,2 C 3,2 km/h (1 Bft)
15.06.2019 11:21 20,2 C 87 % 1006,9 hPa 0,0 l/m 1,8 km/h (1 Bft) N-NO 25 0 min 93 W/m 18,0 C 20,2 C 6,4 km/h (2 Bft)
15.06.2019 11:24 20,2 C 87 % 1006,9 hPa 0,0 l/m 1,9 km/h (1 Bft) N-NO 25 0 min 79 W/m 18,0 C 20,2 C 6,4 km/h (2 Bft)
15.06.2019 11:27 20,1 C 87 % 1006,8 hPa 0,0 l/m 1,6 km/h (1 Bft) N-NO 25 0 min 79 W/m 17,9 C 20,1 C 4,8 km/h (1 Bft)
15.06.2019 11:30 20,1 C 88 % 1006,7 hPa 0,0 l/m 0,9 km/h (0 Bft) N-NO 25 0 min 93 W/m 18,0 C 20,1 C 3,2 km/h (1 Bft)
15.06.2019 11:33 20,1 C 88 % 1006,8 hPa 0,0 l/m 1,3 km/h (1 Bft) N-NO 25 0 min 84 W/m 18,0 C 20,1 C 3,2 km/h (1 Bft)
15.06.2019 11:36 20,1 C 88 % 1006,8 hPa 0,0 l/m 1,6 km/h (1 Bft) N-NO 25 0 min 77 W/m 18,0 C 20,1 C 6,4 km/h (2 Bft)
15.06.2019 11:39 20,0 C 88 % 1006,9 hPa 0,0 l/m 1,0 km/h (0 Bft) N-NO 25 0 min 74 W/m 17,9 C 20,0 C 3,2 km/h (1 Bft)
15.06.2019 11:42 19,9 C 88 % 1007,0 hPa 0,0 l/m 1,4 km/h (1 Bft) N-NO 25 0 min 74 W/m 17,8 C 19,9 C 3,2 km/h (1 Bft)
15.06.2019 11:45 19,9 C 88 % 1007,1 hPa 0,0 l/m 2,3 km/h (1 Bft) N-NO 25 0 min 84 W/m 17,8 C 19,9 C 6,4 km/h (2 Bft)
15.06.2019 11:48 19,9 C 88 % 1007,1 hPa 0,0 l/m 1,3 km/h (1 Bft) N-NO 25 0 min 84 W/m 17,8 C 19,9 C 3,2 km/h (1 Bft)
15.06.2019 11:51 19,9 C 88 % 1007,0 hPa 0,0 l/m 0,1 km/h (0 Bft) N-NO 25 0 min 83 W/m 17,8 C 19,9 C 1,6 km/h (1 Bft)
15.06.2019 11:54 19,8 C 88 % 1007,0 hPa 0,0 l/m 1,2 km/h (1 Bft) N-NO 28 0 min 77 W/m 17,8 C 19,8 C 9,7 km/h (2 Bft)
15.06.2019 11:57 19,8 C 88 % 1007,1 hPa 0,0 l/m 2,1 km/h (1 Bft) N-NO 28 0 min 63 W/m 17,8 C 19,8 C 4,8 km/h (1 Bft)
15.06.2019 12:00 19,8 C 88 % 1007,1 hPa 0,0 l/m 2,6 km/h (1 Bft) N-NO 28 0 min 56 W/m 17,8 C 19,8 C 6,4 km/h (2 Bft)
15.06.2019 12:03 19,7 C 88 % 1007,1 hPa 0,0 l/m 0,8 km/h (0 Bft) N-NO 28 0 min 53 W/m 17,7 C 19,7 C 3,2 km/h (1 Bft)
15.06.2019 12:06 19,7 C 88 % 1007,1 hPa 0,0 l/m 0,5 km/h (0 Bft) N-NO 28 0 min 51 W/m 17,7 C 19,7 C 1,6 km/h (1 Bft)
15.06.2019 12:09 19,7 C 88 % 1007,0 hPa 0,0 l/m 1,7 km/h (1 Bft) N-NO 28 0 min 53 W/m 17,7 C 19,7 C 6,4 km/h (2 Bft)
15.06.2019 12:12 19,7 C 88 % 1007,0 hPa 0,0 l/m 1,9 km/h (1 Bft) N-NO 28 0 min 44 W/m 17,7 C 19,7 C 4,8 km/h (1 Bft)
15.06.2019 12:15 19,6 C 88 % 1007,0 hPa 0,0 l/m 2,2 km/h (1 Bft) N-NO 28 0 min 37 W/m 17,6 C 19,6 C 6,4 km/h (2 Bft)
15.06.2019 12:18 19,6 C 88 % 1007,1 hPa 0,0 l/m 2,2 km/h (1 Bft) N-NO 28 0 min 35 W/m 17,6 C 19,6 C 6,4 km/h (2 Bft)
15.06.2019 12:21 19,5 C 88 % 1007,1 hPa 0,0 l/m 1,9 km/h (1 Bft) N-NO 28 0 min 33 W/m 17,5 C 19,5 C 6,4 km/h (2 Bft)
15.06.2019 12:24 19,5 C 88 % 1007,1 hPa 0,0 l/m 1,4 km/h (1 Bft) N-NO 28 0 min 35 W/m 17,5 C 19,5 C 3,2 km/h (1 Bft)
15.06.2019 12:27 19,4 C 88 % 1007,2 hPa 0,0 l/m 0,9 km/h (0 Bft) N-NO 28 0 min 39 W/m 17,4 C 19,4 C 4,8 km/h (1 Bft)
15.06.2019 12:30 19,4 C 89 % 1007,2 hPa 0,0 l/m 0,3 km/h (0 Bft) N-NO 28 0 min 58 W/m 17,5 C 19,4 C 1,6 km/h (1 Bft)
15.06.2019 12:33 19,4 C 89 % 1007,3 hPa 0,0 l/m 0,5 km/h (0 Bft) N-NO 28 0 min 53 W/m 17,5 C 19,4 C 3,2 km/h (1 Bft)
15.06.2019 12:36 19,3 C 89 % 1007,4 hPa 0,0 l/m 1,6 km/h (1 Bft) N-NO 28 0 min 65 W/m 17,4 C 19,3 C 3,2 km/h (1 Bft)
15.06.2019 12:39 19,3 C 89 % 1007,5 hPa 0,0 l/m 2,1 km/h (1 Bft) N-NO 28 0 min 65 W/m 17,4 C 19,3 C 3,2 km/h (1 Bft)
15.06.2019 12:42 19,3 C 89 % 1007,5 hPa 0,0 l/m 0,0 km/h (0 Bft) N-NO 28 0 min 47 W/m 17,4 C 19,3 C 0,0 km/h (0 Bft)
15.06.2019 12:45 19,3 C 89 % 1007,5 hPa 0,0 l/m 0,0 km/h (0 Bft) N-NO 28 0 min 44 W/m 17,4 C 19,3 C 0,0 km/h (0 Bft)
15.06.2019 12:48 19,2 C 89 % 1007,5 hPa 0,0 l/m 0,0 km/h (0 Bft) N-NO 28 0 min 47 W/m 17,3 C 19,2 C 0,0 km/h (0 Bft)
15.06.2019 12:51 19,2 C 89 % 1007,5 hPa 0,0 l/m 0,1 km/h (0 Bft) N-NO 28 0 min 49 W/m 17,3 C 19,2 C 1,6 km/h (1 Bft)
15.06.2019 12:54 19,2 C 89 % 1007,5 hPa 0,0 l/m 0,0 km/h (0 Bft) N-NO 28 0 min 49 W/m 17,3 C 19,2 C 0,0 km/h (0 Bft)
15.06.2019 12:57 19,2 C 89 % 1007,5 hPa 0,2 l/m 0,0 km/h (0 Bft) N-NO 28 0 min 33 W/m 17,3 C 19,2 C 0,0 km/h (0 Bft)
15.06.2019 13:00 19,2 C 89 % 1007,5 hPa 0,0 l/m 0,0 km/h (0 Bft) N-NO 28 0 min 44 W/m 17,3 C 19,2 C 0,0 km/h (0 Bft)
15.06.2019 13:03 19,2 C 89 % 1007,4 hPa 0,0 l/m 0,0 km/h (0 Bft) N-NO 28 0 min 62 W/m 17,3 C 19,2 C 0,0 km/h (0 Bft)
15.06.2019 13:06 19,1 C 90 % 1007,3 hPa 0,0 l/m 0,0 km/h (0 Bft) N-NO 28 0 min 63 W/m 17,4 C 19,1 C 0,0 km/h (0 Bft)
15.06.2019 13:09 19,1 C 90 % 1007,4 hPa 0,0 l/m 0,0 km/h (0 Bft) N-NO 28 0 min 56 W/m 17,4 C 19,1 C 0,0 km/h (0 Bft)
15.06.2019 13:12 19,1 C 90 % 1007,5 hPa 0,0 l/m 0,0 km/h (0 Bft) N-NO 28 0 min 46 W/m 17,4 C 19,1 C 0,0 km/h (0 Bft)
15.06.2019 13:15 19,0 C 90 % 1007,6 hPa 0,0 l/m 0,0 km/h (0 Bft) N-NO 28 0 min 54 W/m 17,3 C 19,0 C 0,0 km/h (0 Bft)
15.06.2019 13:18 19,0 C 90 % 1007,5 hPa 0,0 l/m 0,0 km/h (0 Bft) N-NO 28 0 min 63 W/m 17,3 C 19,0 C 0,0 km/h (0 Bft)
15.06.2019 13:21 19,0 C 90 % 1007,6 hPa 0,0 l/m 0,0 km/h (0 Bft) N-NO 28 0 min 42 W/m 17,3 C 19,0 C 0,0 km/h (0 Bft)
15.06.2019 13:24 18,9 C 90 % 1007,6 hPa 0,0 l/m 0,0 km/h (0 Bft) N-NO 28 0 min 39 W/m 17,2 C 18,9 C 0,0 km/h (0 Bft)
15.06.2019 13:27 18,9 C 90 % 1007,8 hPa 0,0 l/m 0,0 km/h (0 Bft) N-NO 28 0 min 32 W/m 17,2 C 18,9 C 0,0 km/h (0 Bft)
15.06.2019 13:30 18,9 C 90 % 1007,9 hPa 0,0 l/m 1,7 km/h (1 Bft) N-NO 28 0 min 25 W/m 17,2 C 18,9 C 3,2 km/h (1 Bft)
15.06.2019 13:33 19,0 C 90 % 1007,9 hPa 0,0 l/m 2,1 km/h (1 Bft) N-NO 28 0 min 28 W/m 17,3 C 19,0 C 4,8 km/h (1 Bft)
15.06.2019 13:36 18,9 C 90 % 1007,9 hPa 0,0 l/m 0,7 km/h (0 Bft) N-NO 28 0 min 26 W/m 17,2 C 18,9 C 4,8 km/h (1 Bft)
15.06.2019 13:39 18,9 C 90 % 1008,0 hPa 0,0 l/m 2,2 km/h (1 Bft) N-NO 28 0 min 28 W/m 17,2 C 18,9 C 4,8 km/h (1 Bft)
15.06.2019 13:42 18,9 C 90 % 1008,0 hPa 0,0 l/m 1,4 km/h (1 Bft) N-NO 28 0 min 28 W/m 17,2 C 18,9 C 3,2 km/h (1 Bft)
15.06.2019 13:45 18,9 C 90 % 1008,0 hPa 0,0 l/m 0,5 km/h (0 Bft) N-NO 28 0 min 42 W/m 17,2 C 18,9 C 3,2 km/h (1 Bft)
15.06.2019 13:48 18,9 C 91 % 1008,0 hPa 0,0 l/m 0,1 km/h (0 Bft) N-NO 28 0 min 46 W/m 17,4 C 18,9 C 1,6 km/h (1 Bft)
15.06.2019 13:51 18,9 C 91 % 1007,9 hPa 0,0 l/m 0,0 km/h (0 Bft) N-NO 28 0 min 47 W/m 17,4 C 18,9 C 0,0 km/h (0 Bft)
15.06.2019 13:54 18,9 C 91 % 1007,9 hPa 0,0 l/m 0,5 km/h (0 Bft) N-NO 28 0 min 40 W/m 17,4 C 18,9 C 1,6 km/h (1 Bft)
15.06.2019 13:57 18,9 C 91 % 1007,9 hPa 0,0 l/m 1,1 km/h (1 Bft) N-NO 28 0 min 32 W/m 17,4 C 18,9 C 3,2 km/h (1 Bft)
15.06.2019 14:00 18,9 C 91 % 1007,9 hPa 0,0 l/m 0,9 km/h (0 Bft) N-NO 28 0 min 21 W/m 17,4 C 18,9 C 4,8 km/h (1 Bft)
15.06.2019 14:03 18,9 C 91 % 1007,9 hPa 0,0 l/m 1,0 km/h (0 Bft) N-NO 28 0 min 26 W/m 17,4 C 18,9 C 3,2 km/h (1 Bft)
15.06.2019 14:06 18,9 C 91 % 1007,9 hPa 0,0 l/m 0,8 km/h (0 Bft) N-NO 28 0 min 46 W/m 17,4 C 18,9 C 3,2 km/h (1 Bft)
15.06.2019 14:09 18,9 C 91 % 1007,9 hPa 0,0 l/m 0,0 km/h (0 Bft) N-NO 28 0 min 53 W/m 17,4 C 18,9 C 0,0 km/h (0 Bft)
15.06.2019 14:12 18,9 C 91 % 1007,9 hPa 0,0 l/m 0,0 km/h (0 Bft) N-NO 28 0 min 88 W/m 17,4 C 18,9 C 0,0 km/h (0 Bft)
15.06.2019 14:15 18,9 C 92 % 1007,9 hPa 0,0 l/m 0,0 km/h (0 Bft) N-NO 28 0 min 109 W/m 17,6 C 18,9 C 0,0 km/h (0 Bft)
15.06.2019 14:18 18,9 C 92 % 1008,0 hPa 0,0 l/m 0,0 km/h (0 Bft) N-NO 28 0 min 93 W/m 17,6 C 18,9 C 0,0 km/h (0 Bft)
15.06.2019 14:21 18,9 C 92 % 1008,0 hPa 0,0 l/m 0,0 km/h (0 Bft) N-NO 28 0 min 72 W/m 17,6 C 18,9 C 0,0 km/h (0 Bft)
15.06.2019 14:24 18,9 C 92 % 1008,0 hPa 0,0 l/m 0,3 km/h (0 Bft) N-NO 28 0 min 37 W/m 17,6 C 18,9 C 1,6 km/h (1 Bft)
15.06.2019 14:27 19,0 C 92 % 1008,2 hPa 0,0 l/m 3,1 km/h (1 Bft) W-SW 257 0 min 18 W/m 17,7 C 19,0 C 8,0 km/h (2 Bft)
15.06.2019 14:30 19,1 C 92 % 1008,3 hPa 0,0 l/m 6,1 km/h (2 Bft) SW 215 0 min 12 W/m 17,8 C 19,1 C 9,7 km/h (2 Bft)
15.06.2019 14:33 19,1 C 92 % 1008,3 hPa 0,0 l/m 4,2 km/h (1 Bft) SW 215 0 min 44 W/m 17,8 C 19,1 C 8,0 km/h (2 Bft)
15.06.2019 14:36 19,0 C 92 % 1008,3 hPa 0,0 l/m 5,3 km/h (1 Bft) S-SW 213 0 min 33 W/m 17,7 C 19,0 C 9,7 km/h (2 Bft)
15.06.2019 14:39 19,0 C 92 % 1008,4 hPa 0,0 l/m 9,5 km/h (2 Bft) SW 223 0 min 32 W/m 17,7 C 17,7 C 19,3 km/h (3 Bft)
15.06.2019 14:42 18,9 C 92 % 1008,4 hPa 0,0 l/m 10,8 km/h (2 Bft) W-SW 249 0 min 100 W/m 17,6 C 17,1 C 22,5 km/h (4 Bft)
15.06.2019 14:45 18,8 C 92 % 1008,5 hPa 0,0 l/m 7,3 km/h (2 Bft) W-SW 250 0 min 58 W/m 17,5 C 18,4 C 14,5 km/h (3 Bft)
15.06.2019 14:48 18,6 C 91 % 1008,6 hPa 0,0 l/m 8,6 km/h (2 Bft) W 271 0 min 58 W/m 17,1 C 17,6 C 14,5 km/h (3 Bft)
15.06.2019 14:51 18,4 C 91 % 1008,7 hPa 0,0 l/m 9,1 km/h (2 Bft) W 266 0 min 102 W/m 16,9 C 17,2 C 16,1 km/h (3 Bft)
15.06.2019 14:54 18,3 C 91 % 1008,6 hPa 0,0 l/m 10,4 km/h (2 Bft) W-NW 288 0 min 137 W/m 16,8 C 16,6 C 17,7 km/h (3 Bft)
15.06.2019 14:57 18,1 C 91 % 1008,7 hPa 0,0 l/m 8,9 km/h (2 Bft) W-SW 254 0 min 128 W/m 16,6 C 17,0 C 16,1 km/h (3 Bft)
15.06.2019 15:00 18,0 C 91 % 1008,7 hPa 0,0 l/m 8,0 km/h (2 Bft) W 264 0 min 97 W/m 16,5 C 17,3 C 19,3 km/h (3 Bft)
15.06.2019 15:03 17,9 C 92 % 1008,8 hPa 0,0 l/m 9,9 km/h (2 Bft) W 275 0 min 146 W/m 16,6 C 16,4 C 17,7 km/h (3 Bft)
15.06.2019 15:06 17,9 C 92 % 1008,8 hPa 0,0 l/m 9,7 km/h (2 Bft) W 269 0 min 144 W/m 16,6 C 16,4 C 16,1 km/h (3 Bft)
15.06.2019 15:09 17,9 C 92 % 1008,7 hPa 0,0 l/m 7,6 km/h (2 Bft) W 261 0 min 141 W/m 16,6 C 17,3 C 14,5 km/h (3 Bft)
15.06.2019 15:12 17,9 C 92 % 1008,8 hPa 0,0 l/m 7,9 km/h (2 Bft) W 265 0 min 193 W/m 16,6 C 17,2 C 17,7 km/h (3 Bft)
15.06.2019 15:15 17,9 C 92 % 1008,9 hPa 0,0 l/m 9,8 km/h (2 Bft) W 260 0 min 169 W/m 16,6 C 16,4 C 16,1 km/h (3 Bft)
15.06.2019 15:18 17,9 C 92 % 1009,0 hPa 0,0 l/m 10,9 km/h (2 Bft) SW 233 0 min 258 W/m 16,6 C 16,0 C 19,3 km/h (3 Bft)
15.06.2019 15:21 17,9 C 92 % 1009,0 hPa 0,0 l/m 12,5 km/h (2 Bft) W 261 0 min 265 W/m 16,6 C 15,4 C 19,3 km/h (3 Bft)
15.06.2019 15:24 17,9 C 93 % 1009,0 hPa 0,0 l/m 10,1 km/h (2 Bft) W-SW 257 0 min 348 W/m 16,8 C 16,3 C 17,7 km/h (3 Bft)
15.06.2019 15:27 18,0 C 93 % 1009,1 hPa 0,0 l/m 11,4 km/h (2 Bft) W 267 0 min 248 W/m 16,8 C 15,9 C 22,5 km/h (4 Bft)
15.06.2019 15:30 17,9 C 92 % 1009,0 hPa 0,0 l/m 11,9 km/h (2 Bft) W-SW 253 0 min 269 W/m 16,6 C 15,6 C 17,7 km/h (3 Bft)
15.06.2019 15:33 17,7 C 93 % 1009,0 hPa 0,0 l/m 12,1 km/h (2 Bft) W 273 0 min 295 W/m 16,6 C 15,3 C 20,9 km/h (4 Bft)
15.06.2019 15:36 17,7 C 93 % 1009,0 hPa 0,0 l/m 13,6 km/h (3 Bft) W 270 0 min 318 W/m 16,6 C 14,9 C 22,5 km/h (4 Bft)
15.06.2019 15:39 17,7 C 93 % 1009,0 hPa 0,0 l/m 10,3 km/h (2 Bft) SW 219 0 min 318 W/m 16,6 C 16,0 C 17,7 km/h (3 Bft)
15.06.2019 15:42 17,8 C 93 % 1009,0 hPa 0,0 l/m 8,7 km/h (2 Bft) W-SW 238 0 min 399 W/m 16,7 C 16,7 C 19,3 km/h (3 Bft)
15.06.2019 15:45 17,9 C 93 % 1009,0 hPa 0,0 l/m 9,7 km/h (2 Bft) W-SW 246 0 min 399 W/m 16,8 C 16,4 C 20,9 km/h (4 Bft)
15.06.2019 15:48 18,2 C 94 % 1009,0 hPa 0,0 l/m 8,8 km/h (2 Bft) W-SW 242 0 min 399 W/m 17,2 C 17,1 C 17,7 km/h (3 Bft)
15.06.2019 15:51 18,4 C 93 % 1009,1 hPa 0,0 l/m 12,4 km/h (2 Bft) SW 233 3 min 805 W/m 17,2 C 16,1 C 24,1 km/h (4 Bft)
15.06.2019 15:54 18,6 C 93 % 1009,2 hPa 0,0 l/m 9,7 km/h (2 Bft) W 275 3 min 833 W/m 17,4 C 17,2 C 22,5 km/h (4 Bft)
15.06.2019 15:57 18,7 C 92 % 1009,2 hPa 0,0 l/m 11,9 km/h (2 Bft) W-SW 256 0 min 216 W/m 17,4 C 16,6 C 19,3 km/h (3 Bft)
15.06.2019 16:00 18,7 C 92 % 1009,2 hPa 0,0 l/m 10,8 km/h (2 Bft) W 261 0 min 394 W/m 17,4 C 16,9 C 17,7 km/h (3 Bft)
15.06.2019 16:03 18,8 C 92 % 1009,3 hPa 0,0 l/m 9,8 km/h (2 Bft) W-SW 256 0 min 394 W/m 17,5 C 17,4 C 17,7 km/h (3 Bft)
15.06.2019 16:06 18,9 C 92 % 1009,2 hPa 0,0 l/m 8,4 km/h (2 Bft) W-SW 257 3 min 744 W/m 17,6 C 18,0 C 16,1 km/h (3 Bft)
15.06.2019 16:09 19,1 C 90 % 1009,3 hPa 0,0 l/m 10,4 km/h (2 Bft) W-SW 246 3 min 715 W/m 17,4 C 17,5 C 16,1 km/h (3 Bft)
15.06.2019 16:12 19,2 C 90 % 1009,4 hPa 0,0 l/m 7,5 km/h (2 Bft) SW 225 3 min 719 W/m 17,5 C 18,7 C 16,1 km/h (3 Bft)
15.06.2019 16:15 19,2 C 88 % 1009,5 hPa 0,0 l/m 10,9 km/h (2 Bft) SW 224 3 min 747 W/m 17,2 C 17,5 C 19,3 km/h (3 Bft)
15.06.2019 16:18 19,1 C 88 % 1009,4 hPa 0,2 l/m 11,5 km/h (2 Bft) W 271 3 min 580 W/m 17,1 C 17,1 C 17,7 km/h (3 Bft)
15.06.2019 16:21 19,3 C 89 % 1009,4 hPa 0,0 l/m 9,4 km/h (2 Bft) W 268 3 min 580 W/m 17,4 C 18,1 C 17,7 km/h (3 Bft)
15.06.2019 16:24 19,5 C 88 % 1009,4 hPa 0,0 l/m 9,3 km/h (2 Bft) SW 227 3 min 788 W/m 17,5 C 18,3 C 16,1 km/h (3 Bft)
15.06.2019 16:27 19,6 C 88 % 1009,4 hPa 0,0 l/m 8,2 km/h (2 Bft) W 259 3 min 788 W/m 17,6 C 18,9 C 16,1 km/h (3 Bft)
15.06.2019 16:30 19,7 C 87 % 1009,4 hPa 0,0 l/m 10,6 km/h (2 Bft) SW 218 3 min 654 W/m 17,5 C 18,1 C 19,3 km/h (3 Bft)
15.06.2019 16:33 19,7 C 87 % 1009,4 hPa 0,0 l/m 9,7 km/h (2 Bft) W-SW 252 3 min 654 W/m 17,5 C 18,4 C 17,7 km/h (3 Bft)
15.06.2019 16:36 19,8 C 86 % 1009,4 hPa 0,0 l/m 7,5 km/h (2 Bft) W 261 3 min 429 W/m 17,4 C 19,3 C 12,9 km/h (3 Bft)
15.06.2019 16:39 19,9 C 87 % 1009,6 hPa 0,0 l/m 6,6 km/h (2 Bft) W-SW 247 0 min 350 W/m 17,7 C 19,8 C 12,9 km/h (3 Bft)
15.06.2019 16:42 20,0 C 87 % 1009,6 hPa 0,0 l/m 4,4 km/h (1 Bft) S-SW 200 3 min 441 W/m 17,8 C 20,0 C 14,5 km/h (3 Bft)
15.06.2019 16:45 20,1 C 86 % 1009,7 hPa 0,0 l/m 12,2 km/h (2 Bft) SW 234 3 min 441 W/m 17,7 C 18,1 C 19,3 km/h (3 Bft)
15.06.2019 16:48 20,1 C 86 % 1009,7 hPa 0,0 l/m 8,8 km/h (2 Bft) SW 218 3 min 788 W/m 17,7 C 19,2 C 16,1 km/h (3 Bft)
15.06.2019 16:51 20,1 C 85 % 1009,7 hPa 0,0 l/m 7,6 km/h (2 Bft) SW 231 3 min 780 W/m 17,5 C 19,6 C 14,5 km/h (3 Bft)
15.06.2019 16:54 20,1 C 85 % 1009,6 hPa 0,0 l/m 7,2 km/h (2 Bft) W-SW 241 3 min 747 W/m 17,5 C 19,8 C 11,3 km/h (2 Bft)
15.06.2019 16:57 20,1 C 85 % 1009,7 hPa 0,0 l/m 12,4 km/h (2 Bft) W-SW 240 0 min 114 W/m 17,5 C 18,0 C 20,9 km/h (4 Bft)
15.06.2019 17:00 20,1 C 84 % 1009,7 hPa 0,0 l/m 7,8 km/h (2 Bft) SW 235 0 min 156 W/m 17,3 C 19,5 C 14,5 km/h (3 Bft)
15.06.2019 17:03 20,1 C 84 % 1009,8 hPa 0,0 l/m 9,1 km/h (2 Bft) SW 232 0 min 156 W/m 17,3 C 19,1 C 16,1 km/h (3 Bft)
15.06.2019 17:06 20,1 C 84 % 1009,7 hPa 0,0 l/m 8,7 km/h (2 Bft) W 275 0 min 134 W/m 17,3 C 19,2 C 16,1 km/h (3 Bft)
15.06.2019 17:09 20,1 C 84 % 1009,8 hPa 0,0 l/m 8,6 km/h (2 Bft) SW 233 0 min 93 W/m 17,3 C 19,2 C 14,5 km/h (3 Bft)
15.06.2019 17:12 20,0 C 84 % 1009,8 hPa 0,0 l/m 10,7 km/h (2 Bft) SW 234 0 min 67 W/m 17,2 C 18,4 C 17,7 km/h (3 Bft)
15.06.2019 17:15 19,9 C 84 % 1009,8 hPa 0,0 l/m 6,1 km/h (2 Bft) W 269 0 min 83 W/m 17,1 C 19,9 C 11,3 km/h (2 Bft)
15.06.2019 17:18 19,8 C 84 % 1009,8 hPa 0,0 l/m 6,7 km/h (2 Bft) W-SW 246 0 min 91 W/m 17,0 C 19,7 C 12,9 km/h (3 Bft)
15.06.2019 17:21 19,8 C 84 % 1009,8 hPa 0,0 l/m 6,9 km/h (2 Bft) SW 217 0 min 104 W/m 17,0 C 19,6 C 11,3 km/h (2 Bft)
15.06.2019 17:24 19,7 C 84 % 1009,8 hPa 0,0 l/m 6,2 km/h (2 Bft) SW 219 0 min 134 W/m 16,9 C 19,7 C 11,3 km/h (2 Bft)
15.06.2019 17:27 19,6 C 84 % 1009,8 hPa 0,0 l/m 7,7 km/h (2 Bft) W 269 0 min 127 W/m 16,8 C 19,1 C 12,9 km/h (3 Bft)
15.06.2019 17:30 19,6 C 85 % 1009,8 hPa 0,0 l/m 6,9 km/h (2 Bft) W-SW 250 0 min 149 W/m 17,0 C 19,4 C 12,9 km/h (3 Bft)
15.06.2019 17:33 19,6 C 85 % 1009,8 hPa 0,0 l/m 5,1 km/h (1 Bft) W 268 0 min 127 W/m 17,0 C 19,6 C 11,3 km/h (2 Bft)
15.06.2019 17:36 19,5 C 85 % 1009,8 hPa 0,0 l/m 7,2 km/h (2 Bft) W 273 0 min 120 W/m 16,9 C 19,2 C 12,9 km/h (3 Bft)
15.06.2019 17:39 19,5 C 86 % 1009,8 hPa 0,0 l/m 6,1 km/h (2 Bft) W 272 0 min 153 W/m 17,1 C 19,5 C 11,3 km/h (2 Bft)
15.06.2019 17:42 19,4 C 86 % 1009,8 hPa 0,0 l/m 6,7 km/h (2 Bft) W 260 0 min 109 W/m 17,0 C 19,3 C 12,9 km/h (3 Bft)
15.06.2019 17:45 19,4 C 86 % 1009,9 hPa 0,0 l/m 6,6 km/h (2 Bft) W-SW 253 0 min 98 W/m 17,0 C 19,3 C 12,9 km/h (3 Bft)
15.06.2019 17:48 19,4 C 86 % 1009,9 hPa 0,0 l/m 5,4 km/h (2 Bft) W-SW 254 0 min 74 W/m 17,0 C 19,4 C 8,0 km/h (2 Bft)
15.06.2019 17:51 19,3 C 86 % 1009,9 hPa 0,0 l/m 6,4 km/h (2 Bft) W-SW 258 0 min 39 W/m 16,9 C 19,3 C 11,3 km/h (2 Bft)
15.06.2019 17:54 19,3 C 86 % 1010,0 hPa 0,0 l/m 6,8 km/h (2 Bft) SW 234 0 min 46 W/m 16,9 C 19,1 C 12,9 km/h (3 Bft)
15.06.2019 17:57 19,3 C 86 % 1010,0 hPa 0,0 l/m 4,7 km/h (1 Bft) W 267 0 min 40 W/m 16,9 C 19,3 C 11,3 km/h (2 Bft)
15.06.2019 18:00 19,2 C 86 % 1010,1 hPa 0,0 l/m 5,7 km/h (2 Bft) W 265 0 min 32 W/m 16,8 C 19,2 C 11,3 km/h (2 Bft)
15.06.2019 18:03 19,2 C 87 % 1010,1 hPa 0,0 l/m 5,9 km/h (2 Bft) W 267 0 min 16 W/m 17,0 C 19,2 C 11,3 km/h (2 Bft)
15.06.2019 18:06 19,2 C 87 % 1010,1 hPa 0,0 l/m 8,5 km/h (2 Bft) W 266 0 min 46 W/m 17,0 C 18,3 C 12,9 km/h (3 Bft)
15.06.2019 18:09 19,2 C 87 % 1010,0 hPa 0,0 l/m 5,2 km/h (1 Bft) W 265 0 min 62 W/m 17,0 C 19,2 C 9,7 km/h (2 Bft)
15.06.2019 18:12 19,2 C 87 % 1010,2 hPa 0,0 l/m 2,8 km/h (1 Bft) W 263 0 min 46 W/m 17,0 C 19,2 C 9,7 km/h (2 Bft)
15.06.2019 18:15 19,1 C 87 % 1010,1 hPa 0,2 l/m 2,8 km/h (1 Bft) W 263 0 min 42 W/m 16,9 C 19,1 C 6,4 km/h (2 Bft)
15.06.2019 18:18 19,1 C 88 % 1010,2 hPa 0,0 l/m 3,6 km/h (1 Bft) W-SW 258 0 min 19 W/m 17,1 C 19,1 C 9,7 km/h (2 Bft)
15.06.2019 18:21 19,1 C 88 % 1010,3 hPa 0,0 l/m 6,8 km/h (2 Bft) W 266 0 min 21 W/m 17,1 C 18,9 C 12,9 km/h (3 Bft)
15.06.2019 18:24 19,0 C 88 % 1010,3 hPa 0,2 l/m 7,2 km/h (2 Bft) W 270 0 min 28 W/m 17,0 C 18,6 C 16,1 km/h (3 Bft)
15.06.2019 18:27 18,9 C 88 % 1010,4 hPa 0,0 l/m 9,4 km/h (2 Bft) W 265 0 min 21 W/m 16,9 C 17,6 C 16,1 km/h (3 Bft)
15.06.2019 18:30 18,8 C 88 % 1010,5 hPa 0,0 l/m 9,6 km/h (2 Bft) W 267 0 min 21 W/m 16,8 C 17,5 C 19,3 km/h (3 Bft)
15.06.2019 18:33 18,7 C 88 % 1010,5 hPa 0,2 l/m 9,6 km/h (2 Bft) W 271 0 min 12 W/m 16,7 C 17,4 C 16,1 km/h (3 Bft)
15.06.2019 18:36 18,6 C 88 % 1010,6 hPa 0,0 l/m 8,5 km/h (2 Bft) W-SW 258 0 min 9 W/m 16,6 C 17,7 C 14,5 km/h (3 Bft)
15.06.2019 18:39 18,4 C 89 % 1010,6 hPa 0,0 l/m 11,5 km/h (2 Bft) W 265 0 min 7 W/m 16,6 C 16,4 C 27,4 km/h (5 Bft)
15.06.2019 18:42 18,3 C 88 % 1010,7 hPa 0,0 l/m 18,3 km/h (3 Bft) W 261 0 min 30 W/m 16,3 C 14,4 C 29,0 km/h (5 Bft)
15.06.2019 18:45 18,1 C 89 % 1010,8 hPa 0,0 l/m 11,2 km/h (2 Bft) SW 234 0 min 39 W/m 16,3 C 16,1 C 22,5 km/h (4 Bft)
15.06.2019 18:48 17,8 C 89 % 1010,8 hPa 0,0 l/m 14,2 km/h (3 Bft) SW 227 0 min 47 W/m 16,0 C 14,8 C 27,4 km/h (5 Bft)
15.06.2019 18:51 17,7 C 89 % 1010,8 hPa 0,0 l/m 11,4 km/h (2 Bft) W 264 0 min 56 W/m 15,9 C 15,6 C 24,1 km/h (4 Bft)
15.06.2019 18:54 17,6 C 90 % 1011,0 hPa 0,0 l/m 12,0 km/h (2 Bft) W-SW 239 0 min 28 W/m 15,9 C 15,3 C 19,3 km/h (3 Bft)
15.06.2019 18:57 17,5 C 90 % 1011,1 hPa 0,0 l/m 12,7 km/h (3 Bft) W-SW 257 0 min 37 W/m 15,8 C 14,9 C 24,1 km/h (4 Bft)
15.06.2019 19:00 17,4 C 90 % 1011,3 hPa 0,0 l/m 12,1 km/h (2 Bft) SW 224 0 min 33 W/m 15,7 C 15,0 C 27,4 km/h (5 Bft)
15.06.2019 19:03 17,2 C 90 % 1011,3 hPa 0,0 l/m 13,4 km/h (3 Bft) W 277 0 min 44 W/m 15,5 C 14,3 C 20,9 km/h (4 Bft)
15.06.2019 19:06 17,1 C 90 % 1011,4 hPa 0,0 l/m 14,8 km/h (3 Bft) W 264 0 min 54 W/m 15,4 C 13,8 C 27,4 km/h (5 Bft)
15.06.2019 19:09 16,9 C 90 % 1011,5 hPa 0,0 l/m 15,5 km/h (3 Bft) W 261 0 min 33 W/m 15,2 C 13,3 C 30,6 km/h (5 Bft)
15.06.2019 19:12 16,7 C 90 % 1011,6 hPa 0,0 l/m 14,4 km/h (3 Bft) W 267 0 min 42 W/m 15,0 C 13,4 C 22,5 km/h (4 Bft)
15.06.2019 19:15 16,6 C 90 % 1011,8 hPa 0,0 l/m 11,0 km/h (2 Bft) W-NW 292 0 min 32 W/m 15,0 C 14,5 C 22,5 km/h (4 Bft)
15.06.2019 19:18 16,4 C 90 % 1011,8 hPa 0,0 l/m 13,1 km/h (3 Bft) W 265 0 min 33 W/m 14,8 C 13,5 C 20,9 km/h (4 Bft)
15.06.2019 19:21 16,4 C 91 % 1011,8 hPa 0,0 l/m 10,7 km/h (2 Bft) W-SW 256 0 min 32 W/m 14,9 C 14,4 C 19,3 km/h (3 Bft)
15.06.2019 19:24 16,3 C 91 % 1011,9 hPa 0,0 l/m 13,3 km/h (3 Bft) W 269 0 min 26 W/m 14,8 C 13,3 C 22,5 km/h (4 Bft)
15.06.2019 19:27 16,3 C 91 % 1011,9 hPa 0,0 l/m 11,9 km/h (2 Bft) W 259 0 min 21 W/m 14,8 C 13,8 C 25,7 km/h (4 Bft)
15.06.2019 19:30 16,2 C 91 % 1011,9 hPa 0,0 l/m 11,0 km/h (2 Bft) W 270 0 min 32 W/m 14,7 C 14,0 C 17,7 km/h (3 Bft)
15.06.2019 19:33 16,2 C 91 % 1012,0 hPa 0,0 l/m 13,3 km/h (3 Bft) W 263 0 min 23 W/m 14,7 C 13,2 C 27,4 km/h (5 Bft)
15.06.2019 19:36 16,1 C 91 % 1012,0 hPa 0,0 l/m 12,2 km/h (2 Bft) SW 218 0 min 23 W/m 14,6 C 13,5 C 25,7 km/h (4 Bft)
15.06.2019 19:39 16,1 C 91 % 1012,1 hPa 0,0 l/m 14,0 km/h (3 Bft) SW 226 0 min 25 W/m 14,6 C 12,8 C 25,7 km/h (4 Bft)
15.06.2019 19:42 15,9 C 91 % 1012,3 hPa 0,0 l/m 15,6 km/h (3 Bft) W-NW 283 0 min 26 W/m 14,4 C 12,1 C 29,0 km/h (5 Bft)
15.06.2019 19:45 15,7 C 91 % 1012,3 hPa 0,0 l/m 14,3 km/h (3 Bft) NW 306 0 min 26 W/m 14,2 C 12,3 C 27,4 km/h (5 Bft)
15.06.2019 19:48 15,7 C 91 % 1012,3 hPa 0,0 l/m 15,2 km/h (3 Bft) W-SW 245 0 min 46 W/m 14,2 C 12,0 C 27,4 km/h (5 Bft)
15.06.2019 19:51 15,6 C 92 % 1012,3 hPa 0,0 l/m 11,6 km/h (2 Bft) W-NW 292 0 min 30 W/m 14,3 C 13,1 C 24,1 km/h (4 Bft)
15.06.2019 19:54 15,6 C 91 % 1012,3 hPa 0,0 l/m 17,4 km/h (3 Bft) W 273 0 min 21 W/m 14,1 C 11,2 C 27,4 km/h (5 Bft)
15.06.2019 19:57 15,4 C 92 % 1012,4 hPa 0,0 l/m 14,6 km/h (3 Bft) W 276 0 min 30 W/m 14,1 C 11,8 C 24,1 km/h (4 Bft)
15.06.2019 20:00 15,4 C 92 % 1012,4 hPa 0,0 l/m 12,5 km/h (2 Bft) W 269 0 min 33 W/m 14,1 C 12,5 C 20,9 km/h (4 Bft)
15.06.2019 20:03 15,4 C 92 % 1012,4 hPa 0,0 l/m 11,8 km/h (2 Bft) SW 234 0 min 39 W/m 14,1 C 12,8 C 22,5 km/h (4 Bft)
15.06.2019 20:06 15,4 C 92 % 1012,5 hPa 0,0 l/m 13,6 km/h (3 Bft) W 261 0 min 21 W/m 14,1 C 12,1 C 20,9 km/h (4 Bft)
15.06.2019 20:09 15,3 C 92 % 1012,5 hPa 0,0 l/m 15,0 km/h (3 Bft) NW 307 0 min 19 W/m 14,0 C 11,6 C 25,7 km/h (4 Bft)
15.06.2019 20:12 15,3 C 92 % 1012,5 hPa 0,0 l/m 14,5 km/h (3 Bft) W 266 0 min 19 W/m 14,0 C 11,7 C 27,4 km/h (5 Bft)
15.06.2019 20:15 15,3 C 92 % 1012,5 hPa 0,0 l/m 12,5 km/h (2 Bft) W 278 0 min 26 W/m 14,0 C 12,4 C 24,1 km/h (4 Bft)
15.06.2019 20:18 15,2 C 92 % 1012,6 hPa 0,0 l/m 13,4 km/h (3 Bft) W-NW 296 0 min 35 W/m 13,9 C 12,0 C 24,1 km/h (4 Bft)
15.06.2019 20:21 15,2 C 92 % 1012,6 hPa 0,0 l/m 13,3 km/h (3 Bft) W-SW 239 0 min 37 W/m 13,9 C 12,0 C 27,4 km/h (5 Bft)
15.06.2019 20:24 15,2 C 92 % 1012,7 hPa 0,0 l/m 17,1 km/h (3 Bft) NW 305 0 min 40 W/m 13,9 C 10,8 C 29,0 km/h (5 Bft)
15.06.2019 20:27 15,2 C 92 % 1012,7 hPa 0,0 l/m 15,5 km/h (3 Bft) W 261 0 min 42 W/m 13,9 C 11,3 C 25,7 km/h (4 Bft)
15.06.2019 20:30 15,2 C 92 % 1012,7 hPa 0,0 l/m 10,3 km/h (2 Bft) SW 234 0 min 46 W/m 13,9 C 13,2 C 22,5 km/h (4 Bft)
15.06.2019 20:33 15,2 C 92 % 1012,8 hPa 0,0 l/m 16,7 km/h (3 Bft) W-SW 251 0 min 40 W/m 13,9 C 10,9 C 30,6 km/h (5 Bft)
15.06.2019 20:36 15,2 C 92 % 1012,8 hPa 0,0 l/m 18,5 km/h (3 Bft) W 272 0 min 28 W/m 13,9 C 10,4 C 32,2 km/h (5 Bft)
15.06.2019 20:39 15,1 C 92 % 1012,7 hPa 0,0 l/m 16,1 km/h (3 Bft) W 268 0 min 33 W/m 13,8 C 11,0 C 29,0 km/h (5 Bft)
15.06.2019 20:42 15,1 C 92 % 1012,7 hPa 0,0 l/m 15,8 km/h (3 Bft) W 260 0 min 25 W/m 13,8 C 11,1 C 25,7 km/h (4 Bft)
15.06.2019 20:45 15,1 C 92 % 1012,8 hPa 0,0 l/m 14,1 km/h (3 Bft) SW 234 0 min 33 W/m 13,8 C 11,6 C 29,0 km/h (5 Bft)
15.06.2019 20:48 15,1 C 92 % 1012,8 hPa 0,0 l/m 16,4 km/h (3 Bft) NW 304 0 min 32 W/m 13,8 C 10,9 C 27,4 km/h (5 Bft)
15.06.2019 20:51 15,1 C 92 % 1012,8 hPa 0,0 l/m 15,9 km/h (3 Bft) W-NW 282 0 min 18 W/m 13,8 C 11,0 C 30,6 km/h (5 Bft)
15.06.2019 20:54 15,1 C 92 % 1012,9 hPa 0,0 l/m 17,4 km/h (3 Bft) W-SW 238 0 min 16 W/m 13,8 C 10,6 C 30,6 km/h (5 Bft)
15.06.2019 20:57 15,1 C 92 % 1012,9 hPa 0,0 l/m 17,3 km/h (3 Bft) SW 236 0 min 12 W/m 13,8 C 10,6 C 32,2 km/h (5 Bft)
15.06.2019 21:00 15,1 C 92 % 1012,9 hPa 0,0 l/m 15,1 km/h (3 Bft) W 259 0 min 9 W/m 13,8 C 11,3 C 25,7 km/h (4 Bft)
15.06.2019 21:03 15,1 C 92 % 1012,9 hPa 0,0 l/m 12,6 km/h (3 Bft) W 267 0 min 14 W/m 13,8 C 12,2 C 20,9 km/h (4 Bft)
15.06.2019 21:06 15,1 C 92 % 1013,0 hPa 0,0 l/m 14,0 km/h (3 Bft) W 281 0 min 7 W/m 13,8 C 11,6 C 30,6 km/h (5 Bft)
15.06.2019 21:09 15,1 C 92 % 1013,0 hPa 0,0 l/m 14,9 km/h (3 Bft) W 259 0 min 18 W/m 13,8 C 11,3 C 24,1 km/h (4 Bft)
15.06.2019 21:12 15,1 C 92 % 1013,0 hPa 0,0 l/m 14,6 km/h (3 Bft) W-SW 242 0 min 12 W/m 13,8 C 11,4 C 30,6 km/h (5 Bft)
15.06.2019 21:15 15,1 C 92 % 1013,1 hPa 0,0 l/m 14,0 km/h (3 Bft) W-SW 254 0 min 11 W/m 13,8 C 11,6 C 24,1 km/h (4 Bft)
15.06.2019 21:18 15,1 C 92 % 1013,1 hPa 0,0 l/m 15,4 km/h (3 Bft) W-NW 294 0 min 9 W/m 13,8 C 11,2 C 27,4 km/h (5 Bft)
15.06.2019 21:21 15,0 C 92 % 1013,2 hPa 0,0 l/m 16,9 km/h (3 Bft) W 267 0 min 9 W/m 13,7 C 10,6 C 29,0 km/h (5 Bft)
15.06.2019 21:24 15,1 C 92 % 1013,2 hPa 0,0 l/m 13,4 km/h (3 Bft) W 277 0 min 5 W/m 13,8 C 11,9 C 24,1 km/h (4 Bft)
15.06.2019 21:27 15,1 C 92 % 1013,2 hPa 0,0 l/m 14,4 km/h (3 Bft) W 279 0 min 5 W/m 13,8 C 11,5 C 29,0 km/h (5 Bft)
15.06.2019 21:30 15,1 C 92 % 1013,2 hPa 0,0 l/m 14,9 km/h (3 Bft) W-SW 241 0 min 7 W/m 13,8 C 11,3 C 29,0 km/h (5 Bft)
15.06.2019 21:33 15,1 C 92 % 1013,2 hPa 0,0 l/m 12,3 km/h (2 Bft) W 267 0 min 5 W/m 13,8 C 12,3 C 25,7 km/h (4 Bft)
15.06.2019 21:36 15,1 C 92 % 1013,3 hPa 0,0 l/m 13,1 km/h (3 Bft) W 264 0 min 0 W/m 13,8 C 12,0 C 27,4 km/h (5 Bft)
15.06.2019 21:39 15,1 C 92 % 1013,3 hPa 0,0 l/m 16,1 km/h (3 Bft) W 259 0 min 0 W/m 13,8 C 11,0 C 25,7 km/h (4 Bft)
15.06.2019 21:42 15,1 C 92 % 1013,2 hPa 0,0 l/m 12,5 km/h (2 Bft) W-NW 291 0 min 0 W/m 13,8 C 12,2 C 24,1 km/h (4 Bft)
15.06.2019 21:45 15,2 C 92 % 1013,1 hPa 0,0 l/m 10,2 km/h (2 Bft) W-SW 248 0 min 0 W/m 13,9 C 13,2 C 22,5 km/h (4 Bft)
15.06.2019 21:48 15,2 C 92 % 1013,2 hPa 0,0 l/m 13,9 km/h (3 Bft) W-SW 243 0 min 0 W/m 13,9 C 11,8 C 20,9 km/h (4 Bft)
15.06.2019 21:51 15,2 C 92 % 1013,2 hPa 0,0 l/m 18,4 km/h (3 Bft) W-SW 238 0 min 0 W/m 13,9 C 10,4 C 29,0 km/h (5 Bft)
15.06.2019 21:54 15,2 C 92 % 1013,3 hPa 0,0 l/m 14,2 km/h (3 Bft) NW 322 0 min 0 W/m 13,9 C 11,7 C 27,4 km/h (5 Bft)
15.06.2019 21:57 15,2 C 92 % 1013,4 hPa 0,0 l/m 14,2 km/h (3 Bft) NW 318 0 min 0 W/m 13,9 C 11,7 C 27,4 km/h (5 Bft)
15.06.2019 22:00 15,1 C 92 % 1013,5 hPa 0,0 l/m 16,4 km/h (3 Bft) W 265 0 min 0 W/m 13,8 C 10,9 C 27,4 km/h (5 Bft)
15.06.2019 22:03 15,1 C 92 % 1013,6 hPa 0,0 l/m 13,5 km/h (3 Bft) NW 315 0 min 0 W/m 13,8 C 11,8 C 22,5 km/h (4 Bft)
15.06.2019 22:06 15,0 C 92 % 1013,6 hPa 0,0 l/m 13,0 km/h (3 Bft) W-SW 250 0 min 0 W/m 13,7 C 11,9 C 30,6 km/h (5 Bft)
15.06.2019 22:09 15,0 C 92 % 1013,5 hPa 0,0 l/m 11,6 km/h (2 Bft) W-SW 257 0 min 0 W/m 13,7 C 12,4 C 19,3 km/h (3 Bft)
15.06.2019 22:12 14,9 C 92 % 1013,6 hPa 0,0 l/m 14,1 km/h (3 Bft) W 281 0 min 0 W/m 13,6 C 11,4 C 25,7 km/h (4 Bft)
15.06.2019 22:15 14,9 C 91 % 1013,5 hPa 0,0 l/m 13,5 km/h (3 Bft) NW 319 0 min 0 W/m 13,4 C 11,6 C 25,7 km/h (4 Bft)
15.06.2019 22:18 14,9 C 91 % 1013,5 hPa 0,0 l/m 12,6 km/h (3 Bft) W 275 0 min 0 W/m 13,4 C 11,9 C 22,5 km/h (4 Bft)
15.06.2019 22:21 14,9 C 91 % 1013,5 hPa 0,0 l/m 13,5 km/h (3 Bft) W-SW 258 0 min 0 W/m 13,4 C 11,6 C 24,1 km/h (4 Bft)
15.06.2019 22:24 14,9 C 91 % 1013,6 hPa 0,0 l/m 13,8 km/h (3 Bft) W-SW 257 0 min 0 W/m 13,4 C 11,5 C 24,1 km/h (4 Bft)
15.06.2019 22:27 15,0 C 91 % 1013,6 hPa 0,0 l/m 13,2 km/h (3 Bft) W-SW 240 0 min 0 W/m 13,5 C 11,8 C 24,1 km/h (4 Bft)
15.06.2019 22:30 15,0 C 91 % 1013,7 hPa 0,0 l/m 11,9 km/h (2 Bft) W-NW 284 0 min 0 W/m 13,5 C 12,3 C 20,9 km/h (4 Bft)
15.06.2019 22:33 14,9 C 91 % 1013,7 hPa 0,0 l/m 14,7 km/h (3 Bft) SW 227 0 min 0 W/m 13,4 C 11,2 C 25,7 km/h (4 Bft)
15.06.2019 22:36 14,9 C 90 % 1013,9 hPa 0,0 l/m 14,8 km/h (3 Bft) W-SW 247 0 min 0 W/m 13,3 C 11,1 C 24,1 km/h (4 Bft)
15.06.2019 22:39 14,9 C 90 % 1013,9 hPa 0,0 l/m 12,5 km/h (2 Bft) W 278 0 min 0 W/m 13,3 C 12,0 C 24,1 km/h (4 Bft)
15.06.2019 22:42 14,9 C 90 % 1013,9 hPa 0,0 l/m 9,8 km/h (2 Bft) SW 219 0 min 0 W/m 13,3 C 13,1 C 16,1 km/h (3 Bft)
15.06.2019 22:45 14,8 C 90 % 1013,9 hPa 0,0 l/m 8,7 km/h (2 Bft) W 275 0 min 0 W/m 13,2 C 13,5 C 17,7 km/h (3 Bft)
15.06.2019 22:48 14,9 C 90 % 1014,0 hPa 0,0 l/m 7,0 km/h (2 Bft) W 281 0 min 0 W/m 13,3 C 14,6 C 19,3 km/h (3 Bft)
15.06.2019 22:51 14,9 C 90 % 1014,1 hPa 0,0 l/m 10,3 km/h (2 Bft) W 264 0 min 0 W/m 13,3 C 12,9 C 19,3 km/h (3 Bft)
15.06.2019 22:54 14,8 C 90 % 1014,1 hPa 0,0 l/m 11,0 km/h (2 Bft) W 266 0 min 0 W/m 13,2 C 12,5 C 20,9 km/h (4 Bft)
15.06.2019 22:57 14,8 C 89 % 1014,1 hPa 0,0 l/m 10,2 km/h (2 Bft) W 278 0 min 0 W/m 13,0 C 12,8 C 17,7 km/h (3 Bft)
15.06.2019 23:00 14,8 C 89 % 1014,1 hPa 0,0 l/m 13,2 km/h (3 Bft) W 274 0 min 0 W/m 13,0 C 11,6 C 20,9 km/h (4 Bft)
15.06.2019 23:03 14,9 C 89 % 1014,2 hPa 0,0 l/m 13,2 km/h (3 Bft) W 273 0 min 0 W/m 13,1 C 11,7 C 30,6 km/h (5 Bft)
15.06.2019 23:06 14,9 C 89 % 1014,2 hPa 0,0 l/m 10,1 km/h (2 Bft) W 267 0 min 0 W/m 13,1 C 13,0 C 17,7 km/h (3 Bft)
15.06.2019 23:09 14,9 C 89 % 1014,2 hPa 0,0 l/m 10,2 km/h (2 Bft) W 270 0 min 0 W/m 13,1 C 12,9 C 20,9 km/h (4 Bft)
15.06.2019 23:12 14,9 C 89 % 1014,2 hPa 0,0 l/m 10,1 km/h (2 Bft) W 263 0 min 0 W/m 13,1 C 13,0 C 20,9 km/h (4 Bft)
15.06.2019 23:15 14,9 C 89 % 1014,2 hPa 0,0 l/m 8,8 km/h (2 Bft) W 269 0 min 0 W/m 13,1 C 13,6 C 14,5 km/h (3 Bft)
15.06.2019 23:18 14,9 C 89 % 1014,2 hPa 0,0 l/m 12,8 km/h (3 Bft) W 265 0 min 0 W/m 13,1 C 11,8 C 19,3 km/h (3 Bft)
15.06.2019 23:21 14,9 C 89 % 1014,3 hPa 0,0 l/m 10,3 km/h (2 Bft) W 270 0 min 0 W/m 13,1 C 12,9 C 17,7 km/h (3 Bft)
15.06.2019 23:24 15,0 C 89 % 1014,3 hPa 0,0 l/m 9,2 km/h (2 Bft) W 267 0 min 0 W/m 13,2 C 13,5 C 16,1 km/h (3 Bft)
15.06.2019 23:27 15,0 C 89 % 1014,3 hPa 0,0 l/m 8,2 km/h (2 Bft) W 269 0 min 0 W/m 13,2 C 14,0 C 17,7 km/h (3 Bft)
15.06.2019 23:30 15,0 C 88 % 1014,3 hPa 0,0 l/m 9,4 km/h (2 Bft) W 270 0 min 0 W/m 13,0 C 13,4 C 22,5 km/h (4 Bft)
15.06.2019 23:33 15,0 C 88 % 1014,4 hPa 0,0 l/m 10,7 km/h (2 Bft) W-NW 292 0 min 0 W/m 13,0 C 12,8 C 19,3 km/h (3 Bft)
15.06.2019 23:36 14,9 C 88 % 1014,4 hPa 0,0 l/m 11,1 km/h (2 Bft) W 271 0 min 0 W/m 12,9 C 12,5 C 20,9 km/h (4 Bft)
15.06.2019 23:39 14,9 C 88 % 1014,5 hPa 0,0 l/m 8,8 km/h (2 Bft) W-NW 283 0 min 0 W/m 12,9 C 13,6 C 16,1 km/h (3 Bft)
15.06.2019 23:42 14,9 C 88 % 1014,4 hPa 0,0 l/m 8,2 km/h (2 Bft) W-NW 286 0 min 0 W/m 12,9 C 13,9 C 16,1 km/h (3 Bft)
15.06.2019 23:45 14,9 C 88 % 1014,4 hPa 0,0 l/m 6,7 km/h (2 Bft) W-NW 284 0 min 0 W/m 12,9 C 14,7 C 12,9 km/h (3 Bft)
15.06.2019 23:48 14,9 C 88 % 1014,3 hPa 0,0 l/m 8,5 km/h (2 Bft) W 274 0 min 0 W/m 12,9 C 13,7 C 17,7 km/h (3 Bft)
15.06.2019 23:51 14,8 C 88 % 1014,4 hPa 0,0 l/m 9,3 km/h (2 Bft) W 264 0 min 0 W/m 12,8 C 13,2 C 14,5 km/h (3 Bft)
15.06.2019 23:54 14,8 C 88 % 1014,5 hPa 0,0 l/m 10,8 km/h (2 Bft) W 278 0 min 0 W/m 12,8 C 12,5 C 17,7 km/h (3 Bft)
15.06.2019 23:57 14,8 C 88 % 1014,5 hPa 0,0 l/m 7,5 km/h (2 Bft) W 279 0 min 0 W/m 12,8 C 14,2 C 16,1 km/h (3 Bft)
_ Min-Zeit 22:42 00:00 11:30 - 02:15 - - - - 23:51 20:36 02:15
Minimum _ 14,8 C 83 % 1006,7 hPa - 0,0 km/h (0 Bft) - - - - 12,8 C 10,4 C 0,0 km/h (0 Bft)
_ Max-Zeit 10:51 08:42 23:39 12:57 20:36 - - 09:27 15:54 10:18 10:39 20:36
Maximum _ 20,3 C 94 % 1014,5 hPa 0,2 l/m 18,5 km/h
W (3 Bft)
- - 3 min 833 W/m 18,3 C 20,2 C 32,2 km/h
SW (5 Bft)
Durchschnitt _ 17,7 C 90 % 1010,0 hPa #1,0 l/m 5,4 km/h (1 Bft) W - #1:15 h 125 W/m 16,0 C 16,9 C 11,1 km/h (2 Bft)
2019 Cux-Wetter.de -Die Nutzung der Wetterdaten nur mit ausdrcklicher Genehmigung